GFSMA_prec_precacc24_132.txt.gz
Total_Precipitation_Accumulation
0.26 0.30 0.23 0.23 0.32 0.35 0.31 0.33 0.29 0.23 0.18 0.17 0.11 0.04 0.02 0.03 0.04 0.01 0.04 0.10 0.12 0.04 0.10 0.15 0.26 0.27 0.26 0.56 0.73 0.75 0.70 0.71 0.47 0.41 0.34 0.28 0.26 0.32 0.24 0.07 0.11 0.04 0.00
0.18 0.19 0.22 0.22 0.22 0.31 0.54 0.49 0.44 0.47 0.33 0.21 0.09 0.09 0.09 0.07 0.06 0.03 0.02 0.09 0.07 0.02 0.02 0.09 0.21 0.21 0.25 0.39 0.72 0.70 0.62 0.67 0.62 0.51 0.28 0.19 0.25 0.39 0.38 0.31 0.08 0.03 0.01
0.21 0.18 0.19 0.17 0.21 0.34 0.57 0.53 0.71 0.74 0.62 0.48 0.31 0.24 0.19 0.18 0.12 0.14 0.06 0.03 0.04 0.03 0.03 0.01 0.08 0.20 0.29 0.36 0.67 1.04 1.01 0.94 0.55 0.49 0.35 0.20 0.21 0.34 0.31 0.24 0.22 0.08 0.02
0.51 0.65 0.52 0.38 0.27 0.52 0.59 0.38 0.43 0.67 0.66 0.55 0.49 0.63 0.55 0.60 0.51 0.35 0.27 0.09 0.07 0.06 0.10 0.06 0.03 0.06 0.16 0.33 0.80 1.08 1.33 1.09 0.89 0.65 0.43 0.20 0.16 0.33 0.29 0.24 0.18 0.16 0.10
0.50 0.53 0.57 0.70 0.76 0.81 0.72 0.67 0.68 0.51 0.45 0.42 0.52 0.69 0.94 1.18 1.26 0.89 0.46 0.38 0.31 0.31 0.27 0.20 0.11 0.07 0.06 0.14 0.72 1.17 1.10 1.24 0.99 0.72 0.60 0.31 0.13 0.28 0.21 0.15 0.12 0.12 0.08
0.09 0.17 0.22 0.37 0.71 0.88 0.95 1.11 1.03 0.75 0.68 0.75 0.93 0.85 0.88 1.00 1.03 1.14 0.86 0.99 0.94 0.72 0.51 0.32 0.19 0.12 0.09 0.07 0.28 0.69 0.69 0.59 0.56 0.67 0.67 0.48 0.24 0.27 0.22 0.14 0.09 0.06 0.06
0.10 0.01 0.02 0.08 0.22 0.27 0.30 0.64 0.94 0.93 0.88 1.24 1.95 1.92 1.48 1.45 1.80 2.03 2.47 2.47 2.61 2.24 1.54 0.76 0.26 0.10 0.06 0.06 0.09 0.44 0.50 0.39 0.29 0.29 0.43 0.50 0.45 0.29 0.22 0.16 0.09 0.07 0.05
0.03 0.02 0.01 0.02 0.05 0.19 0.33 0.32 0.64 0.75 0.69 0.90 1.22 1.30 1.27 0.89 0.62 0.51 0.55 0.54 0.40 0.32 0.21 0.12 0.06 0.03 0.06 0.09 0.09 0.24 0.37 0.45 0.36 0.24 0.18 0.20 0.25 0.30 0.17 0.13 0.14 0.10 0.05
0.00 0.03 0.05 0.06 0.09 0.32 0.57 0.96 1.12 1.20 0.96 0.90 1.02 1.15 0.96 0.76 0.70 0.63 0.59 0.45 0.38 0.28 0.15 0.09 0.04 0.02 0.05 0.08 0.15 0.26 0.31 0.41 0.57 0.39 0.17 0.11 0.12 0.13 0.14 0.08 0.11 0.18 0.19
0.01 0.02 0.04 0.11 0.08 0.20 0.28 0.43 0.69 0.90 1.11 1.18 1.31 1.43 1.25 1.02 0.74 0.51 0.49 0.52 0.37 0.20 0.08 0.02 0.01 0.00 0.01 0.09 0.14 0.19 0.28 0.41 0.52 0.74 0.45 0.17 0.18 0.08 0.08 0.08 0.07 0.06 0.13
0.02 0.06 0.10 0.11 0.10 0.15 0.11 0.10 0.12 0.14 0.14 0.25 0.24 0.24 0.39 0.36 0.28 0.25 0.15 0.07 0.10 0.07 0.05 0.03 0.01 0.01 0.03 0.08 0.17 0.20 0.19 0.27 0.50 0.55 0.79 0.47 0.27 0.19 0.08 0.05 0.07 0.06 0.04
0.00 0.06 0.16 0.17 0.19 0.18 0.14 0.11 0.13 0.18 0.14 0.10 0.10 0.09 0.07 0.07 0.05 0.07 0.08 0.04 0.03 0.02 0.04 0.06 0.08 0.03 0.04 0.12 0.37 0.28 0.31 0.28 0.37 0.57 0.56 0.80 0.55 0.32 0.22 0.09 0.05 0.07 0.06
0.00 0.03 0.23 0.27 0.23 0.29 0.28 0.25 0.27 0.43 0.57 0.36 0.26 0.21 0.15 0.09 0.08 0.10 0.09 0.05 0.02 0.00 0.01 0.01 0.02 0.06 0.12 0.19 0.22 0.37 0.46 0.35 0.37 0.45 0.56 0.52 0.66 0.65 0.40 0.25 0.15 0.08 0.07
0.01 0.04 0.33 0.43 0.34 0.27 0.23 0.29 0.33 0.45 0.73 0.75 0.33 0.23 0.17 0.14 0.15 0.14 0.13 0.16 0.08 0.02 0.00 0.01 0.00 0.02 0.08 0.17 0.19 0.25 0.35 0.41 0.33 0.50 0.56 0.55 0.50 0.58 0.65 0.46 0.30 0.21 0.12
0.01 0.02 0.09 0.18 0.19 0.16 0.13 0.22 0.31 0.29 0.34 0.54 0.45 0.21 0.22 0.22 0.23 0.20 0.17 0.18 0.17 0.08 0.02 0.00 0.00 0.00 0.00 0.01 0.02 0.05 0.12 0.24 0.31 0.30 0.38 0.62 0.53 0.57 0.58 0.59 0.53 0.34 0.27
0.01 0.03 0.04 0.19 0.23 0.21 0.15 0.11 0.14 0.20 0.21 0.37 0.57 0.48 0.30 0.20 0.25 0.35 0.34 0.37 0.31 0.19 0.07 0.04 0.02 0.01 0.03 0.03 0.05 0.04 0.06 0.14 0.15 0.23 0.27 0.31 0.53 0.60 0.57 0.53 0.56 0.63 0.48
0.06 0.07 0.09 0.26 0.19 0.25 0.21 0.18 0.15 0.20 0.24 0.33 0.53 0.38 0.25 0.30 0.31 0.41 0.50 0.49 0.44 0.42 0.23 0.11 0.07 0.08 0.07 0.08 0.11 0.13 0.10 0.06 0.09 0.09 0.16 0.25 0.29 0.46 0.60 0.54 0.46 0.48 0.58
0.03 0.08 0.15 0.33 0.30 0.28 0.25 0.22 0.21 0.17 0.21 0.32 0.47 0.59 0.41 0.41 0.43 0.46 0.49 0.45 0.39 0.42 0.48 0.34 0.24 0.18 0.13 0.11 0.12 0.14 0.11 0.08 0.11 0.13 0.10 0.19 0.27 0.28 0.44 0.66 0.60 0.49 0.45
0.01 0.07 0.12 0.22 0.40 0.37 0.32 0.24 0.25 0.35 0.35 0.38 0.37 0.41 0.58 0.53 0.50 0.58 0.58 0.41 0.34 0.33 0.35 0.38 0.33 0.28 0.26 0.21 0.16 0.13 0.11 0.07 0.07 0.15 0.09 0.09 0.17 0.27 0.29 0.38 0.63 0.68 0.49
0.01 0.06 0.14 0.20 0.47 0.64 0.70 0.56 0.53 0.35 0.33 0.40 0.38 0.38 0.52 0.59 0.39 0.35 0.38 0.45 0.47 0.37 0.25 0.26 0.29 0.31 0.25 0.24 0.33 0.29 0.14 0.11 0.08 0.08 0.09 0.10 0.17 0.30 0.46 0.39 0.35 0.48 0.63
0.00 0.01 0.05 0.11 0.35 0.81 0.51 0.40 0.31 0.48 0.44 0.39 0.48 0.52 0.41 0.56 0.52 0.37 0.37 0.26 0.28 0.38 0.38 0.27 0.26 0.28 0.30 0.30 0.31 0.29 0.26 0.21 0.17 0.15 0.14 0.12 0.14 0.21 0.31 0.59 0.61 0.57 0.58
0.03 0.10 0.10 0.13 0.12 0.41 0.62 0.39 0.41 0.34 0.52 0.58 0.40 0.37 0.64 0.79 0.41 0.31 0.35 0.40 0.42 0.39 0.34 0.40 0.35 0.28 0.22 0.23 0.22 0.23 0.22 0.28 0.31 0.13 0.16 0.23 0.18 0.19 0.21 0.20 0.48 0.60 0.70
0.02 0.05 0.11 0.19 0.24 0.24 0.53 0.38 0.55 0.71 0.58 0.44 0.53 0.53 0.36 0.59 0.71 0.55 0.42 0.44 0.54 0.55 0.43 0.36 0.37 0.47 0.39 0.35 0.33 0.25 0.23 0.25 0.24 0.18 0.24 0.35 0.28 0.27 0.27 0.28 0.31 0.33 0.50
0.08 0.10 0.16 0.16 0.17 0.31 0.32 0.62 0.65 0.74 0.70 0.51 0.48 0.54 0.56 0.52 0.66 0.57 0.45 0.41 0.42 0.53 0.65 0.61 0.49 0.37 0.41 0.42 0.33 0.32 0.38 0.45 0.43 0.45 0.62 0.72 0.40 0.34 0.26 0.24 0.40 0.37 0.40
0.07 0.11 0.11 0.10 0.15 0.26 0.46 0.52 0.63 0.67 0.88 0.76 0.57 0.56 0.48 0.52 0.63 0.76 0.67 0.73 0.58 0.47 0.60 0.64 0.73 0.81 0.72 0.76 0.64 0.54 0.62 0.58 0.60 0.53 0.54 0.58 0.50 0.42 0.34 0.28 0.28 0.41 0.41
0.10 0.07 0.05 0.09 0.13 0.20 0.34 0.46 0.62 0.63 0.59 0.75 0.68 0.61 0.74 0.72 0.66 0.63 0.63 0.65 0.81 0.75 0.63 0.67 0.59 0.52 0.62 0.82 0.92 0.74 0.71 0.65 0.59 0.54 0.45 0.54 0.49 0.54 0.68 0.44 0.28 0.32 0.37

GFSMA_prec_precacc24_135.txt.gz
Total_Precipitation_Accumulation
0.32 0.37 0.31 0.31 0.48 0.49 0.45 0.51 0.47 0.46 0.43 0.35 0.25 0.09 0.05 0.10 0.16 0.15 0.06 0.06 0.06 0.04 0.11 0.15 0.24 0.23 0.16 0.14 0.19 0.49 0.66 0.69 0.47 0.41 0.34 0.28 0.26 0.32 0.24 0.08 0.15 0.06 0.00
0.18 0.19 0.24 0.25 0.27 0.34 0.56 0.52 0.50 0.62 0.55 0.58 0.49 0.45 0.45 0.53 0.46 0.41 0.30 0.20 0.15 0.03 0.08 0.12 0.21 0.19 0.17 0.18 0.13 0.26 0.55 0.62 0.62 0.51 0.28 0.19 0.25 0.39 0.38 0.31 0.08 0.03 0.01
0.20 0.18 0.19 0.17 0.21 0.34 0.57 0.53 0.73 0.80 0.71 0.61 0.51 0.53 0.53 0.57 0.79 0.96 0.71 0.61 0.36 0.16 0.06 0.05 0.12 0.17 0.19 0.20 0.17 0.33 0.83 0.86 0.54 0.49 0.35 0.20 0.21 0.34 0.31 0.24 0.23 0.08 0.02
0.47 0.65 0.53 0.38 0.27 0.52 0.59 0.38 0.43 0.67 0.67 0.56 0.52 0.71 0.88 1.02 1.06 1.26 1.39 1.05 0.79 0.55 0.34 0.18 0.11 0.17 0.22 0.23 0.17 0.23 0.75 0.96 0.87 0.64 0.42 0.20 0.16 0.33 0.29 0.24 0.18 0.16 0.10
0.46 0.48 0.56 0.70 0.76 0.81 0.72 0.67 0.68 0.51 0.45 0.42 0.52 0.69 0.95 1.21 1.37 1.37 1.11 0.88 0.67 0.85 0.67 0.48 0.38 0.28 0.18 0.17 0.28 0.26 0.43 1.03 0.93 0.69 0.59 0.31 0.13 0.28 0.21 0.15 0.12 0.12 0.09
0.06 0.12 0.19 0.36 0.70 0.87 0.95 1.10 1.03 0.75 0.68 0.75 0.93 0.85 0.87 0.99 1.02 1.14 0.85 1.00 1.02 1.08 1.34 1.63 1.88 1.26 0.69 0.25 0.18 0.26 0.25 0.37 0.49 0.66 0.68 0.48 0.24 0.27 0.22 0.14 0.09 0.07 0.06
0.01 0.01 0.01 0.06 0.21 0.25 0.30 0.64 0.92 0.92 0.85 1.23 1.95 1.92 1.48 1.45 1.80 2.02 2.47 2.48 2.68 2.66 2.51 1.84 1.36 1.09 0.65 0.30 0.17 0.19 0.16 0.21 0.25 0.30 0.45 0.51 0.47 0.30 0.22 0.16 0.08 0.06 0.06
0.00 0.00 0.00 0.01 0.02 0.08 0.23 0.28 0.50 0.66 0.64 0.85 1.18 1.30 1.27 0.89 0.62 0.51 0.55 0.54 0.40 0.32 0.23 0.17 0.11 0.08 0.08 0.10 0.09 0.19 0.21 0.22 0.29 0.26 0.25 0.22 0.28 0.32 0.19 0.13 0.13 0.10 0.05
0.00 0.00 0.00 0.01 0.02 0.05 0.07 0.18 0.25 0.45 0.51 0.68 0.91 1.10 0.96 0.76 0.70 0.63 0.59 0.45 0.38 0.28 0.15 0.09 0.04 0.02 0.04 0.06 0.13 0.14 0.14 0.16 0.39 0.48 0.28 0.15 0.14 0.14 0.15 0.09 0.11 0.18 0.18
0.00 0.00 0.00 0.00 0.02 0.04 0.06 0.07 0.13 0.24 0.42 0.88 1.12 1.37 1.24 1.03 0.75 0.51 0.49 0.51 0.37 0.21 0.09 0.03 0.01 0.00 0.01 0.01 0.03 0.12 0.13 0.19 0.28 0.76 0.57 0.29 0.25 0.11 0.10 0.08 0.06 0.06 0.13
0.00 0.00 0.00 0.00 0.01 0.03 0.04 0.05 0.06 0.08 0.07 0.06 0.07 0.19 0.37 0.36 0.28 0.26 0.16 0.07 0.10 0.07 0.06 0.04 0.01 0.01 0.01 0.01 0.02 0.03 0.06 0.09 0.41 0.50 0.83 0.55 0.35 0.24 0.11 0.05 0.07 0.05 0.03
0.00 0.00 0.00 0.00 0.00 0.01 0.04 0.06 0.06 0.07 0.07 0.06 0.05 0.06 0.07 0.08 0.05 0.08 0.08 0.04 0.03 0.02 0.04 0.06 0.08 0.04 0.03 0.05 0.06 0.07 0.16 0.18 0.30 0.54 0.56 0.86 0.63 0.40 0.30 0.16 0.08 0.06 0.06
0.00 0.00 0.00 0.00 0.00 0.00 0.02 0.10 0.13 0.14 0.16 0.15 0.12 0.10 0.11 0.09 0.08 0.10 0.08 0.05 0.02 0.00 0.01 0.00 0.02 0.06 0.09 0.13 0.16 0.17 0.18 0.24 0.34 0.43 0.57 0.55 0.70 0.72 0.47 0.32 0.25 0.14 0.09
0.01 0.01 0.01 0.01 0.00 0.00 0.01 0.05 0.09 0.17 0.26 0.26 0.16 0.17 0.14 0.13 0.15 0.14 0.13 0.14 0.08 0.02 0.00 0.00 0.00 0.02 0.07 0.16 0.35 0.51 0.41 0.36 0.33 0.54 0.63 0.66 0.62 0.66 0.74 0.56 0.38 0.27 0.18
0.01 0.01 0.02 0.02 0.01 0.01 0.01 0.03 0.07 0.11 0.16 0.19 0.12 0.13 0.16 0.15 0.17 0.16 0.17 0.18 0.17 0.08 0.02 0.00 0.00 0.00 0.00 0.01 0.02 0.17 0.45 0.62 0.51 0.31 0.41 0.69 0.63 0.69 0.70 0.72 0.63 0.41 0.32
0.01 0.01 0.00 0.01 0.01 0.01 0.02 0.02 0.06 0.14 0.15 0.22 0.29 0.21 0.19 0.10 0.12 0.21 0.23 0.32 0.32 0.20 0.07 0.04 0.02 0.01 0.01 0.01 0.03 0.02 0.05 0.16 0.17 0.23 0.28 0.35 0.57 0.64 0.63 0.63 0.68 0.73 0.55
0.01 0.01 0.01 0.01 0.02 0.03 0.06 0.08 0.11 0.18 0.18 0.16 0.33 0.20 0.11 0.17 0.14 0.27 0.38 0.39 0.41 0.42 0.23 0.11 0.07 0.08 0.06 0.06 0.06 0.08 0.07 0.07 0.10 0.08 0.16 0.26 0.33 0.52 0.66 0.61 0.53 0.57 0.65
0.00 0.00 0.00 0.01 0.05 0.09 0.13 0.10 0.13 0.14 0.13 0.10 0.17 0.31 0.15 0.17 0.25 0.30 0.41 0.41 0.37 0.42 0.49 0.34 0.23 0.18 0.13 0.10 0.11 0.12 0.09 0.06 0.10 0.13 0.11 0.20 0.30 0.32 0.50 0.75 0.68 0.54 0.48
0.00 0.00 0.00 0.00 0.02 0.06 0.09 0.12 0.18 0.29 0.23 0.13 0.18 0.25 0.24 0.28 0.34 0.47 0.49 0.36 0.32 0.33 0.35 0.38 0.32 0.28 0.26 0.21 0.15 0.12 0.10 0.06 0.06 0.09 0.06 0.07 0.17 0.28 0.32 0.43 0.72 0.77 0.55
0.00 0.00 0.00 0.00 0.01 0.01 0.13 0.34 0.39 0.25 0.25 0.25 0.29 0.32 0.41 0.44 0.24 0.19 0.29 0.40 0.43 0.34 0.24 0.25 0.28 0.30 0.25 0.23 0.31 0.27 0.12 0.06 0.05 0.04 0.04 0.06 0.13 0.27 0.46 0.42 0.40 0.56 0.73
0.00 0.00 0.00 0.01 0.03 0.08 0.17 0.19 0.21 0.42 0.37 0.33 0.46 0.49 0.37 0.48 0.42 0.27 0.30 0.24 0.26 0.37 0.37 0.26 0.25 0.27 0.27 0.25 0.24 0.22 0.19 0.16 0.11 0.10 0.09 0.06 0.06 0.13 0.25 0.56 0.60 0.58 0.60
0.00 0.00 0.01 0.01 0.01 0.04 0.18 0.19 0.16 0.24 0.39 0.55 0.39 0.33 0.58 0.74 0.36 0.26 0.31 0.36 0.39 0.38 0.33 0.39 0.34 0.27 0.21 0.21 0.19 0.19 0.18 0.21 0.23 0.08 0.09 0.11 0.09 0.07 0.09 0.12 0.42 0.57 0.68
0.01 0.01 0.02 0.03 0.03 0.04 0.09 0.14 0.24 0.56 0.49 0.39 0.52 0.43 0.31 0.55 0.66 0.53 0.39 0.42 0.52 0.53 0.42 0.37 0.37 0.47 0.39 0.35 0.32 0.25 0.22 0.22 0.19 0.13 0.17 0.19 0.13 0.15 0.13 0.18 0.26 0.27 0.46
0.03 0.04 0.06 0.07 0.06 0.11 0.12 0.15 0.31 0.56 0.63 0.45 0.43 0.50 0.51 0.49 0.64 0.53 0.44 0.40 0.42 0.53 0.65 0.61 0.49 0.35 0.39 0.37 0.28 0.26 0.26 0.31 0.29 0.29 0.47 0.59 0.29 0.23 0.18 0.17 0.34 0.28 0.28
0.03 0.06 0.08 0.08 0.10 0.15 0.22 0.25 0.29 0.41 0.71 0.70 0.53 0.52 0.43 0.48 0.58 0.73 0.66 0.73 0.58 0.47 0.60 0.63 0.70 0.77 0.63 0.55 0.52 0.47 0.51 0.45 0.42 0.33 0.35 0.46 0.42 0.35 0.26 0.21 0.22 0.35 0.34
0.03 0.03 0.02 0.03 0.04 0.07 0.14 0.18 0.23 0.33 0.45 0.62 0.59 0.57 0.67 0.67 0.63 0.62 0.62 0.65 0.80 0.75 0.63 0.66 0.59 0.50 0.58 0.70 0.82 0.71 0.66 0.55 0.48 0.41 0.34 0.47 0.40 0.47 0.61 0.35 0.20 0.25 0.30

GFSMA_prec_precacc24_138.txt.gz
Total_Precipitation_Accumulation
0.32 0.39 0.32 0.31 0.50 0.49 0.46 0.51 0.47 0.47 0.48 0.39 0.32 0.29 0.19 0.14 0.23 0.26 0.16 0.19 0.11 0.04 0.19 0.24 0.31 0.27 0.19 0.12 0.09 0.13 0.35 0.42 0.36 0.40 0.34 0.28 0.26 0.32 0.25 0.08 0.15 0.06 0.00
0.18 0.20 0.24 0.25 0.27 0.34 0.56 0.52 0.50 0.62 0.55 0.59 0.54 0.55 0.56 0.64 0.59 0.58 0.61 0.47 0.45 0.25 0.31 0.31 0.39 0.35 0.28 0.22 0.12 0.10 0.19 0.36 0.47 0.49 0.28 0.19 0.25 0.39 0.38 0.31 0.08 0.03 0.01
0.16 0.15 0.19 0.17 0.21 0.34 0.57 0.53 0.73 0.80 0.71 0.61 0.51 0.57 0.59 0.67 0.92 1.15 1.19 1.34 1.60 1.47 1.00 0.79 0.71 0.63 0.31 0.26 0.18 0.10 0.15 0.25 0.32 0.47 0.35 0.20 0.21 0.34 0.31 0.24 0.23 0.08 0.02
0.24 0.30 0.30 0.30 0.23 0.51 0.59 0.38 0.43 0.67 0.67 0.56 0.52 0.71 0.89 1.04 1.10 1.32 1.48 1.19 1.09 0.99 0.81 0.81 0.81 1.06 0.84 0.61 0.34 0.20 0.18 0.19 0.35 0.57 0.42 0.20 0.16 0.33 0.29 0.24 0.18 0.16 0.10
0.28 0.28 0.31 0.43 0.55 0.69 0.70 0.67 0.68 0.50 0.45 0.42 0.52 0.69 0.95 1.21 1.37 1.37 1.11 0.88 0.68 0.89 0.94 0.64 0.55 0.61 0.71 0.78 0.75 0.42 0.30 0.21 0.21 0.53 0.51 0.28 0.13 0.28 0.21 0.15 0.12 0.12 0.09
0.03 0.04 0.09 0.28 0.41 0.54 0.74 0.98 0.99 0.74 0.67 0.74 0.92 0.85 0.87 0.99 1.02 1.14 0.85 1.00 1.02 1.08 1.35 1.63 1.98 1.81 1.46 1.20 1.02 0.89 0.43 0.20 0.22 0.53 0.61 0.47 0.25 0.30 0.22 0.14 0.09 0.07 0.06
0.00 0.01 0.00 0.04 0.11 0.12 0.21 0.42 0.61 0.71 0.76 1.18 1.88 1.86 1.47 1.45 1.79 2.02 2.46 2.48 2.67 2.66 2.52 1.84 1.37 1.13 0.82 0.83 0.94 0.80 0.45 0.22 0.20 0.24 0.41 0.50 0.52 0.37 0.25 0.17 0.09 0.09 0.10
0.00 0.00 0.00 0.00 0.00 0.01 0.01 0.03 0.10 0.16 0.31 0.60 0.96 1.19 1.21 0.86 0.62 0.50 0.54 0.53 0.40 0.32 0.23 0.17 0.11 0.08 0.08 0.11 0.12 0.24 0.26 0.30 0.31 0.31 0.35 0.29 0.34 0.39 0.23 0.16 0.17 0.15 0.15
0.00 0.00 0.00 0.00 0.00 0.00 0.01 0.01 0.02 0.09 0.07 0.14 0.35 0.56 0.67 0.67 0.66 0.63 0.58 0.44 0.38 0.28 0.15 0.09 0.05 0.03 0.04 0.07 0.13 0.14 0.14 0.16 0.27 0.42 0.39 0.32 0.25 0.25 0.22 0.13 0.14 0.25 0.26
0.00 0.00 0.00 0.00 0.00 0.00 0.01 0.01 0.02 0.04 0.08 0.04 0.04 0.16 0.38 0.74 0.66 0.49 0.48 0.51 0.37 0.21 0.09 0.03 0.01 0.01 0.01 0.02 0.04 0.12 0.13 0.18 0.12 0.24 0.49 0.37 0.32 0.22 0.22 0.16 0.09 0.06 0.15
0.00 0.00 0.00 0.00 0.00 0.01 0.01 0.01 0.01 0.02 0.03 0.04 0.03 0.05 0.09 0.16 0.21 0.24 0.16 0.07 0.10 0.06 0.06 0.04 0.01 0.01 0.01 0.02 0.03 0.04 0.06 0.08 0.14 0.14 0.32 0.47 0.41 0.31 0.20 0.13 0.13 0.07 0.06
0.00 0.00 0.00 0.00 0.00 0.00 0.01 0.01 0.01 0.02 0.03 0.04 0.05 0.06 0.07 0.07 0.04 0.08 0.08 0.03 0.03 0.02 0.04 0.06 0.08 0.04 0.03 0.05 0.07 0.08 0.13 0.10 0.08 0.11 0.14 0.63 0.65 0.47 0.39 0.28 0.17 0.12 0.09
0.00 0.00 0.00 0.00 0.00 0.00 0.00 0.01 0.01 0.02 0.04 0.06 0.06 0.05 0.05 0.05 0.05 0.04 0.05 0.04 0.02 0.00 0.01 0.00 0.02 0.06 0.09 0.13 0.15 0.16 0.08 0.06 0.07 0.12 0.14 0.25 0.66 0.76 0.51 0.39 0.35 0.19 0.15
0.01 0.01 0.01 0.01 0.00 0.00 0.01 0.01 0.01 0.03 0.04 0.06 0.06 0.07 0.06 0.04 0.05 0.06 0.07 0.09 0.06 0.02 0.00 0.00 0.00 0.02 0.07 0.16 0.34 0.47 0.33 0.20 0.16 0.38 0.38 0.43 0.57 0.72 0.80 0.61 0.44 0.34 0.26
0.01 0.01 0.02 0.02 0.01 0.01 0.01 0.02 0.02 0.03 0.05 0.06 0.07 0.06 0.06 0.05 0.06 0.07 0.11 0.14 0.15 0.08 0.02 0.01 0.00 0.00 0.00 0.01 0.02 0.16 0.41 0.52 0.54 0.38 0.41 0.61 0.55 0.72 0.83 0.97 0.77 0.47 0.38
0.00 0.00 0.00 0.00 0.00 0.01 0.01 0.02 0.02 0.02 0.04 0.05 0.07 0.10 0.09 0.06 0.07 0.14 0.16 0.21 0.22 0.17 0.08 0.04 0.02 0.01 0.01 0.01 0.03 0.02 0.05 0.14 0.14 0.25 0.32 0.39 0.56 0.63 0.68 0.77 1.22 1.30 0.73
0.00 0.00 0.00 0.00 0.01 0.01 0.01 0.02 0.02 0.02 0.04 0.10 0.06 0.10 0.07 0.12 0.11 0.20 0.28 0.30 0.31 0.35 0.21 0.11 0.07 0.08 0.06 0.06 0.06 0.07 0.07 0.05 0.08 0.07 0.15 0.25 0.34 0.55 0.74 0.67 0.62 0.89 1.04
0.00 0.00 0.00 0.00 0.00 0.00 0.01 0.02 0.02 0.02 0.01 0.04 0.08 0.14 0.10 0.11 0.18 0.21 0.30 0.33 0.30 0.32 0.42 0.31 0.23 0.18 0.13 0.10 0.10 0.11 0.08 0.05 0.06 0.12 0.10 0.17 0.26 0.27 0.49 0.83 0.79 0.62 0.63
0.00 0.00 0.00 0.00 0.00 0.00 0.00 0.00 0.02 0.06 0.06 0.05 0.07 0.09 0.11 0.15 0.14 0.14 0.18 0.20 0.24 0.27 0.30 0.35 0.31 0.27 0.26 0.21 0.15 0.11 0.09 0.06 0.05 0.08 0.06 0.07 0.15 0.21 0.26 0.42 0.78 0.88 0.63
0.00 0.00 0.00 0.00 0.01 0.00 0.00 0.00 0.01 0.03 0.05 0.08 0.11 0.13 0.15 0.20 0.16 0.12 0.12 0.13 0.17 0.21 0.20 0.22 0.27 0.30 0.24 0.23 0.31 0.26 0.12 0.06 0.05 0.04 0.04 0.05 0.10 0.22 0.40 0.40 0.40 0.56 0.75
0.00 0.00 0.00 0.00 0.00 0.01 0.02 0.01 0.01 0.00 0.01 0.03 0.24 0.33 0.21 0.25 0.30 0.20 0.15 0.12 0.16 0.27 0.32 0.23 0.23 0.26 0.27 0.25 0.23 0.21 0.18 0.15 0.10 0.09 0.09 0.05 0.05 0.11 0.21 0.51 0.58 0.56 0.59
0.00 0.00 0.00 0.00 0.01 0.01 0.03 0.02 0.03 0.03 0.05 0.18 0.21 0.23 0.48 0.72 0.35 0.20 0.21 0.20 0.25 0.27 0.28 0.37 0.33 0.26 0.21 0.22 0.19 0.19 0.17 0.18 0.18 0.06 0.07 0.09 0.06 0.03 0.05 0.07 0.35 0.50 0.59
0.00 0.00 0.01 0.01 0.02 0.03 0.04 0.03 0.08 0.08 0.07 0.14 0.34 0.35 0.29 0.53 0.60 0.49 0.32 0.31 0.39 0.46 0.39 0.35 0.36 0.48 0.40 0.37 0.33 0.25 0.22 0.21 0.17 0.12 0.12 0.11 0.05 0.05 0.03 0.04 0.09 0.15 0.36
0.02 0.02 0.02 0.03 0.03 0.06 0.06 0.07 0.09 0.11 0.12 0.14 0.20 0.41 0.47 0.47 0.58 0.40 0.26 0.32 0.38 0.50 0.64 0.60 0.48 0.35 0.40 0.37 0.28 0.25 0.22 0.25 0.24 0.24 0.40 0.49 0.18 0.10 0.06 0.06 0.15 0.14 0.19
0.00 0.01 0.02 0.03 0.05 0.09 0.12 0.15 0.15 0.16 0.16 0.18 0.22 0.31 0.30 0.39 0.47 0.61 0.55 0.60 0.56 0.46 0.59 0.62 0.70 0.76 0.63 0.54 0.45 0.39 0.44 0.38 0.30 0.19 0.20 0.33 0.31 0.21 0.13 0.10 0.11 0.22 0.25
0.00 0.00 0.00 0.01 0.02 0.04 0.06 0.08 0.11 0.13 0.16 0.21 0.27 0.35 0.50 0.51 0.49 0.48 0.54 0.57 0.73 0.74 0.63 0.66 0.58 0.50 0.57 0.69 0.79 0.70 0.66 0.51 0.39 0.32 0.28 0.39 0.30 0.34 0.45 0.23 0.13 0.17 0.22

GFSMA_prec_precacc24_141.txt.gz
Total_Precipitation_Accumulation
0.32 0.39 0.32 0.31 0.50 0.49 0.46 0.51 0.47 0.47 0.48 0.39 0.34 0.31 0.20 0.14 0.24 0.26 0.21 0.25 0.14 0.12 0.20 0.25 0.34 0.30 0.26 0.16 0.15 0.20 0.32 0.24 0.18 0.20 0.21 0.25 0.26 0.32 0.26 0.09 0.15 0.06 0.00
0.18 0.20 0.24 0.25 0.27 0.34 0.56 0.52 0.50 0.62 0.55 0.59 0.54 0.55 0.58 0.67 0.60 0.58 0.61 0.49 0.52 0.36 0.39 0.35 0.45 0.44 0.42 0.37 0.33 0.28 0.28 0.30 0.29 0.30 0.19 0.20 0.28 0.38 0.38 0.32 0.08 0.04 0.01
0.16 0.15 0.19 0.16 0.18 0.31 0.54 0.52 0.73 0.80 0.71 0.61 0.51 0.57 0.59 0.67 0.93 1.16 1.22 1.39 1.72 1.60 1.11 0.85 0.74 0.77 0.82 0.81 0.72 0.59 0.38 0.29 0.22 0.27 0.27 0.20 0.21 0.33 0.31 0.24 0.26 0.11 0.02
0.16 0.16 0.16 0.18 0.13 0.29 0.39 0.29 0.39 0.66 0.67 0.56 0.52 0.71 0.89 1.04 1.10 1.32 1.48 1.19 1.10 1.01 0.82 0.81 0.81 1.17 1.56 1.57 1.32 0.99 0.94 0.81 0.34 0.28 0.29 0.22 0.16 0.30 0.29 0.24 0.19 0.20 0.12
0.07 0.10 0.14 0.17 0.26 0.39 0.40 0.46 0.53 0.43 0.43 0.40 0.51 0.69 0.95 1.21 1.37 1.37 1.11 0.88 0.68 0.89 0.94 0.64 0.55 0.62 0.87 1.30 1.71 1.66 1.17 0.93 0.35 0.19 0.25 0.25 0.17 0.26 0.21 0.15 0.17 0.15 0.15
0.00 0.01 0.01 0.05 0.11 0.21 0.37 0.58 0.74 0.56 0.52 0.61 0.84 0.81 0.82 0.95 1.00 1.13 0.85 1.00 1.02 1.08 1.35 1.63 1.99 1.81 1.47 1.23 1.06 0.98 0.62 0.36 0.25 0.24 0.32 0.40 0.40 0.45 0.30 0.16 0.12 0.12 0.10
0.00 0.00 0.00 0.00 0.00 0.02 0.09 0.25 0.32 0.39 0.39 0.80 1.64 1.65 1.27 1.30 1.64 1.91 2.40 2.43 2.66 2.66 2.52 1.84 1.37 1.14 0.83 0.84 0.95 0.80 0.55 0.34 0.26 0.22 0.20 0.28 0.50 0.46 0.42 0.29 0.15 0.14 0.12
0.00 0.00 0.00 0.00 0.00 0.00 0.00 0.01 0.02 0.07 0.18 0.34 0.50 0.77 0.92 0.68 0.42 0.27 0.32 0.39 0.35 0.31 0.23 0.18 0.13 0.10 0.11 0.13 0.15 0.27 0.24 0.29 0.28 0.29 0.37 0.33 0.34 0.42 0.34 0.30 0.31 0.28 0.24
0.00 0.00 0.00 0.00 0.00 0.00 0.00 0.00 0.00 0.01 0.03 0.07 0.21 0.29 0.21 0.11 0.07 0.10 0.08 0.12 0.28 0.25 0.13 0.09 0.04 0.03 0.04 0.07 0.13 0.14 0.14 0.14 0.19 0.33 0.39 0.42 0.32 0.31 0.30 0.21 0.24 0.38 0.41
0.00 0.00 0.00 0.00 0.00 0.00 0.01 0.01 0.00 0.01 0.02 0.03 0.02 0.09 0.11 0.09 0.08 0.05 0.05 0.09 0.23 0.18 0.08 0.03 0.01 0.01 0.02 0.02 0.04 0.13 0.16 0.19 0.13 0.16 0.31 0.31 0.30 0.31 0.34 0.26 0.18 0.15 0.24
0.00 0.00 0.00 0.00 0.00 0.01 0.01 0.01 0.01 0.01 0.01 0.02 0.03 0.03 0.06 0.08 0.08 0.10 0.07 0.03 0.07 0.06 0.06 0.04 0.01 0.01 0.01 0.02 0.03 0.04 0.06 0.09 0.18 0.17 0.17 0.26 0.33 0.33 0.30 0.21 0.19 0.14 0.13
0.00 0.00 0.00 0.00 0.00 0.00 0.01 0.01 0.01 0.01 0.02 0.02 0.03 0.03 0.04 0.05 0.04 0.08 0.08 0.03 0.03 0.02 0.04 0.06 0.08 0.04 0.03 0.05 0.07 0.07 0.13 0.11 0.09 0.12 0.11 0.14 0.21 0.36 0.39 0.33 0.23 0.19 0.15
0.00 0.00 0.00 0.00 0.00 0.00 0.00 0.01 0.00 0.01 0.01 0.03 0.02 0.02 0.04 0.03 0.04 0.05 0.05 0.03 0.02 0.00 0.01 0.00 0.02 0.06 0.09 0.13 0.15 0.16 0.08 0.06 0.07 0.10 0.13 0.11 0.14 0.24 0.34 0.35 0.36 0.23 0.21
0.01 0.01 0.01 0.01 0.00 0.00 0.01 0.00 0.01 0.01 0.02 0.02 0.03 0.03 0.03 0.04 0.05 0.06 0.07 0.08 0.05 0.02 0.00 0.00 0.00 0.02 0.07 0.16 0.33 0.47 0.32 0.20 0.15 0.19 0.20 0.21 0.22 0.30 0.50 0.45 0.41 0.36 0.30
0.01 0.01 0.02 0.02 0.01 0.00 0.00 0.01 0.01 0.02 0.02 0.02 0.02 0.03 0.04 0.04 0.05 0.06 0.08 0.09 0.12 0.07 0.02 0.01 0.00 0.00 0.00 0.00 0.02 0.16 0.41 0.52 0.53 0.34 0.23 0.21 0.21 0.29 0.50 0.78 0.75 0.51 0.40
0.00 0.00 0.00 0.00 0.00 0.00 0.01 0.01 0.02 0.02 0.02 0.03 0.03 0.05 0.06 0.06 0.07 0.08 0.10 0.13 0.14 0.14 0.07 0.03 0.02 0.01 0.01 0.01 0.02 0.02 0.04 0.13 0.13 0.21 0.25 0.27 0.24 0.26 0.34 0.61 1.20 1.50 1.03
0.00 0.00 0.00 0.00 0.01 0.00 0.00 0.01 0.02 0.02 0.04 0.07 0.06 0.08 0.10 0.11 0.13 0.13 0.12 0.15 0.20 0.26 0.16 0.08 0.07 0.08 0.06 0.06 0.05 0.07 0.07 0.05 0.08 0.07 0.10 0.16 0.24 0.40 0.49 0.56 0.64 1.01 1.75
0.00 0.00 0.00 0.00 0.00 0.00 0.00 0.01 0.01 0.01 0.01 0.03 0.04 0.05 0.07 0.07 0.10 0.15 0.18 0.17 0.21 0.21 0.23 0.20 0.20 0.16 0.13 0.10 0.10 0.11 0.07 0.05 0.06 0.10 0.09 0.14 0.19 0.22 0.38 0.67 0.72 0.62 0.71
0.00 0.00 0.00 0.00 0.00 0.00 0.00 0.00 0.01 0.00 0.01 0.02 0.05 0.06 0.07 0.08 0.08 0.08 0.11 0.12 0.13 0.18 0.23 0.28 0.26 0.22 0.25 0.21 0.15 0.11 0.09 0.06 0.05 0.06 0.04 0.06 0.09 0.13 0.19 0.34 0.67 0.89 0.68
0.00 0.00 0.00 0.00 0.01 0.00 0.00 0.00 0.00 0.00 0.00 0.02 0.04 0.08 0.12 0.14 0.11 0.08 0.06 0.07 0.10 0.13 0.15 0.17 0.22 0.26 0.22 0.22 0.30 0.26 0.11 0.06 0.05 0.04 0.04 0.02 0.05 0.14 0.24 0.21 0.28 0.47 0.79
0.00 0.00 0.00 0.00 0.00 0.00 0.01 0.00 0.00 0.00 0.00 0.00 0.00 0.01 0.05 0.11 0.12 0.10 0.11 0.10 0.11 0.15 0.15 0.13 0.15 0.20 0.24 0.23 0.22 0.21 0.18 0.15 0.10 0.09 0.09 0.05 0.03 0.10 0.19 0.42 0.39 0.30 0.45
0.00 0.00 0.00 0.00 0.00 0.01 0.01 0.01 0.00 0.00 0.00 0.00 0.00 0.00 0.01 0.01 0.02 0.05 0.14 0.18 0.23 0.24 0.22 0.22 0.19 0.19 0.17 0.21 0.18 0.17 0.16 0.18 0.16 0.05 0.07 0.08 0.06 0.03 0.05 0.07 0.31 0.43 0.44
0.00 0.00 0.00 0.00 0.00 0.01 0.00 0.00 0.00 0.01 0.02 0.03 0.04 0.03 0.02 0.02 0.05 0.20 0.28 0.29 0.29 0.25 0.19 0.21 0.28 0.38 0.34 0.36 0.33 0.24 0.21 0.21 0.18 0.13 0.12 0.10 0.05 0.05 0.03 0.03 0.06 0.11 0.31
0.01 0.01 0.00 0.00 0.00 0.01 0.00 0.00 0.01 0.03 0.05 0.07 0.10 0.11 0.11 0.17 0.31 0.32 0.23 0.25 0.31 0.31 0.34 0.33 0.28 0.28 0.36 0.36 0.27 0.25 0.22 0.25 0.24 0.25 0.39 0.46 0.15 0.07 0.04 0.04 0.08 0.07 0.11
0.00 0.00 0.01 0.01 0.00 0.00 0.00 0.01 0.02 0.04 0.08 0.09 0.09 0.09 0.10 0.15 0.30 0.42 0.47 0.34 0.28 0.28 0.37 0.47 0.63 0.71 0.60 0.51 0.42 0.38 0.44 0.37 0.28 0.18 0.18 0.32 0.28 0.18 0.09 0.06 0.06 0.12 0.13
0.00 0.00 0.00 0.00 0.01 0.00 0.00 0.00 0.00 0.01 0.03 0.05 0.05 0.08 0.11 0.19 0.21 0.26 0.42 0.45 0.38 0.39 0.46 0.47 0.44 0.48 0.57 0.68 0.76 0.68 0.65 0.50 0.38 0.28 0.25 0.36 0.25 0.29 0.39 0.17 0.07 0.10 0.12

GFSMA_prec_precacc24_144.txt.gz
Total_Precipitation_Accumulation
0.27 0.34 0.31 0.30 0.48 0.49 0.46 0.51 0.47 0.47 0.48 0.39 0.34 0.31 0.20 0.14 0.24 0.27 0.22 0.25 0.19 0.15 0.20 0.22 0.31 0.28 0.24 0.16 0.14 0.20 0.35 0.33 0.24 0.21 0.18 0.15 0.13 0.22 0.29 0.09 0.15 0.06 0.00
0.16 0.17 0.23 0.24 0.24 0.32 0.49 0.51 0.50 0.62 0.55 0.59 0.54 0.55 0.58 0.67 0.60 0.58 0.61 0.49 0.52 0.39 0.47 0.43 0.47 0.47 0.48 0.46 0.42 0.35 0.42 0.43 0.38 0.38 0.26 0.23 0.29 0.31 0.39 0.39 0.11 0.04 0.01
0.13 0.13 0.17 0.16 0.18 0.26 0.37 0.45 0.67 0.78 0.70 0.60 0.51 0.57 0.59 0.67 0.93 1.16 1.22 1.39 1.72 1.61 1.11 0.88 0.82 0.84 0.95 0.92 0.81 0.73 0.67 0.69 0.56 0.43 0.33 0.27 0.24 0.24 0.25 0.26 0.28 0.13 0.02
0.09 0.11 0.13 0.17 0.12 0.14 0.16 0.19 0.30 0.53 0.60 0.52 0.50 0.70 0.88 1.03 1.09 1.31 1.48 1.19 1.10 1.01 0.82 0.81 0.81 1.17 1.57 1.58 1.33 1.05 1.06 1.13 0.83 0.50 0.32 0.22 0.15 0.20 0.25 0.24 0.22 0.30 0.17
0.01 0.03 0.04 0.07 0.12 0.12 0.11 0.13 0.29 0.26 0.33 0.32 0.40 0.61 0.91 1.15 1.31 1.33 1.10 0.88 0.68 0.89 0.94 0.64 0.55 0.62 0.87 1.30 1.71 1.70 1.26 1.08 0.77 0.35 0.21 0.18 0.21 0.27 0.25 0.19 0.19 0.22 0.27
0.00 0.00 0.00 0.00 0.01 0.05 0.11 0.17 0.33 0.29 0.34 0.44 0.63 0.65 0.72 0.84 0.87 1.01 0.77 0.90 0.93 1.02 1.32 1.61 1.98 1.81 1.47 1.23 1.06 1.02 0.71 0.39 0.24 0.22 0.24 0.25 0.32 0.45 0.36 0.28 0.23 0.14 0.15
0.00 0.00 0.00 0.00 0.00 0.00 0.00 0.02 0.04 0.09 0.20 0.53 1.17 1.35 1.14 1.20 1.52 1.77 2.23 2.22 2.47 2.51 2.41 1.80 1.35 1.13 0.83 0.85 0.96 0.79 0.55 0.39 0.28 0.21 0.20 0.21 0.30 0.42 0.47 0.42 0.29 0.23 0.18
0.00 0.00 0.00 0.00 0.00 0.00 0.00 0.00 0.00 0.00 0.02 0.07 0.20 0.49 0.76 0.52 0.30 0.19 0.18 0.17 0.15 0.14 0.12 0.10 0.10 0.10 0.12 0.16 0.20 0.34 0.30 0.36 0.32 0.35 0.47 0.40 0.33 0.37 0.37 0.38 0.45 0.37 0.39
0.00 0.00 0.00 0.00 0.00 0.00 0.00 0.00 0.00 0.00 0.01 0.01 0.05 0.10 0.12 0.05 0.03 0.05 0.05 0.02 0.03 0.02 0.02 0.01 0.01 0.02 0.04 0.07 0.15 0.16 0.17 0.17 0.19 0.32 0.42 0.49 0.34 0.32 0.35 0.31 0.35 0.53 0.55
0.00 0.00 0.00 0.00 0.00 0.00 0.00 0.01 0.00 0.01 0.01 0.01 0.02 0.05 0.06 0.08 0.08 0.05 0.05 0.05 0.02 0.02 0.02 0.02 0.00 0.01 0.02 0.03 0.05 0.15 0.18 0.20 0.13 0.16 0.25 0.28 0.28 0.29 0.33 0.31 0.26 0.22 0.33
0.00 0.00 0.00 0.00 0.00 0.00 0.00 0.00 0.01 0.01 0.01 0.02 0.02 0.03 0.06 0.07 0.07 0.11 0.07 0.03 0.06 0.05 0.05 0.04 0.01 0.01 0.01 0.02 0.03 0.04 0.06 0.10 0.18 0.18 0.17 0.19 0.21 0.21 0.25 0.20 0.20 0.16 0.15
0.00 0.00 0.00 0.00 0.00 0.00 0.00 0.00 0.00 0.01 0.01 0.01 0.02 0.03 0.04 0.05 0.04 0.08 0.08 0.03 0.03 0.02 0.04 0.06 0.08 0.04 0.03 0.05 0.07 0.07 0.13 0.11 0.09 0.13 0.13 0.15 0.17 0.20 0.26 0.29 0.23 0.19 0.16
0.00 0.00 0.00 0.00 0.00 0.00 0.00 0.00 0.00 0.00 0.01 0.01 0.01 0.01 0.02 0.03 0.03 0.04 0.05 0.03 0.02 0.00 0.01 0.00 0.02 0.06 0.09 0.13 0.15 0.16 0.08 0.06 0.07 0.10 0.13 0.12 0.14 0.19 0.22 0.27 0.33 0.24 0.24
0.01 0.01 0.01 0.01 0.00 0.00 0.00 0.00 0.00 0.01 0.01 0.01 0.01 0.01 0.02 0.02 0.04 0.06 0.07 0.08 0.06 0.02 0.00 0.00 0.00 0.02 0.07 0.15 0.33 0.47 0.32 0.20 0.15 0.18 0.19 0.21 0.21 0.22 0.29 0.30 0.30 0.29 0.28
0.01 0.01 0.02 0.02 0.01 0.00 0.00 0.01 0.01 0.01 0.01 0.01 0.01 0.01 0.02 0.03 0.04 0.05 0.07 0.09 0.13 0.09 0.02 0.01 0.00 0.00 0.00 0.00 0.02 0.16 0.41 0.51 0.53 0.33 0.23 0.21 0.21 0.26 0.32 0.45 0.37 0.31 0.31
0.00 0.00 0.00 0.00 0.00 0.00 0.00 0.01 0.01 0.01 0.01 0.01 0.02 0.03 0.03 0.05 0.06 0.07 0.10 0.13 0.15 0.16 0.08 0.03 0.01 0.00 0.00 0.00 0.01 0.02 0.04 0.13 0.14 0.21 0.25 0.27 0.23 0.22 0.22 0.32 0.75 1.01 0.77
0.00 0.00 0.00 0.00 0.00 0.00 0.00 0.01 0.02 0.02 0.03 0.05 0.03 0.06 0.08 0.09 0.10 0.11 0.14 0.18 0.20 0.23 0.16 0.06 0.04 0.04 0.03 0.04 0.04 0.07 0.06 0.05 0.08 0.07 0.11 0.16 0.22 0.27 0.29 0.25 0.28 0.62 1.40
0.00 0.00 0.00 0.00 0.00 0.00 0.00 0.01 0.01 0.01 0.01 0.02 0.02 0.03 0.06 0.06 0.09 0.11 0.16 0.19 0.19 0.18 0.19 0.12 0.05 0.04 0.05 0.06 0.09 0.10 0.07 0.04 0.05 0.10 0.09 0.14 0.18 0.17 0.21 0.31 0.36 0.34 0.48
0.00 0.00 0.00 0.00 0.00 0.00 0.00 0.00 0.00 0.00 0.01 0.01 0.02 0.03 0.04 0.05 0.05 0.06 0.07 0.08 0.08 0.09 0.14 0.14 0.09 0.07 0.12 0.14 0.11 0.11 0.09 0.06 0.04 0.05 0.04 0.05 0.08 0.09 0.13 0.19 0.38 0.56 0.54
0.00 0.00 0.00 0.00 0.01 0.00 0.00 0.00 0.00 0.00 0.00 0.01 0.01 0.01 0.03 0.04 0.06 0.06 0.05 0.07 0.08 0.08 0.08 0.10 0.13 0.12 0.10 0.15 0.26 0.24 0.11 0.05 0.04 0.04 0.03 0.02 0.04 0.08 0.08 0.10 0.14 0.28 0.55
0.00 0.00 0.00 0.00 0.00 0.00 0.01 0.00 0.00 0.00 0.00 0.00 0.00 0.00 0.01 0.05 0.07 0.06 0.07 0.09 0.09 0.09 0.10 0.10 0.13 0.17 0.16 0.15 0.16 0.18 0.18 0.14 0.10 0.07 0.07 0.05 0.02 0.02 0.03 0.13 0.14 0.15 0.22
0.00 0.00 0.00 0.00 0.00 0.01 0.01 0.00 0.00 0.00 0.00 0.00 0.00 0.00 0.00 0.01 0.02 0.03 0.06 0.11 0.18 0.19 0.17 0.18 0.18 0.19 0.17 0.19 0.15 0.15 0.15 0.17 0.16 0.05 0.05 0.05 0.04 0.02 0.01 0.01 0.12 0.20 0.16
0.00 0.00 0.00 0.00 0.00 0.00 0.00 0.00 0.00 0.00 0.00 0.01 0.01 0.01 0.00 0.01 0.01 0.00 0.01 0.03 0.06 0.09 0.11 0.17 0.27 0.38 0.33 0.33 0.30 0.22 0.21 0.20 0.18 0.13 0.11 0.09 0.03 0.04 0.02 0.02 0.04 0.09 0.27
0.01 0.01 0.00 0.00 0.00 0.00 0.00 0.00 0.00 0.00 0.00 0.00 0.01 0.01 0.02 0.02 0.03 0.02 0.01 0.03 0.09 0.12 0.16 0.21 0.25 0.27 0.31 0.27 0.20 0.18 0.18 0.23 0.24 0.25 0.39 0.45 0.13 0.06 0.04 0.04 0.07 0.07 0.11
0.00 0.00 0.00 0.00 0.00 0.00 0.00 0.00 0.00 0.00 0.00 0.00 0.01 0.01 0.01 0.02 0.04 0.05 0.06 0.08 0.13 0.19 0.24 0.26 0.34 0.39 0.35 0.29 0.28 0.30 0.34 0.28 0.23 0.17 0.18 0.32 0.28 0.17 0.09 0.05 0.04 0.10 0.12
0.00 0.00 0.00 0.00 0.00 0.00 0.00 0.00 0.00 0.00 0.00 0.00 0.00 0.00 0.01 0.02 0.02 0.04 0.09 0.13 0.19 0.27 0.27 0.24 0.23 0.23 0.29 0.36 0.43 0.50 0.58 0.46 0.36 0.28 0.24 0.34 0.24 0.29 0.38 0.16 0.07 0.08 0.09

GFSMA_prec_precacc24_150.txt.gz
Total_Precipitation_Accumulation
0.22 0.27 0.26 0.27 0.44 0.46 0.44 0.48 0.41 0.38 0.42 0.33 0.30 0.29 0.20 0.14 0.24 0.27 0.23 0.26 0.21 0.16 0.20 0.21 0.25 0.49 0.48 0.26 0.21 0.29 0.38 0.39 0.30 0.20 0.12 0.16 0.24 0.26 0.26 0.12 0.18 0.07 0.00
0.10 0.12 0.17 0.19 0.19 0.24 0.36 0.42 0.47 0.58 0.48 0.55 0.52 0.52 0.54 0.66 0.59 0.58 0.61 0.49 0.52 0.39 0.47 0.42 0.39 0.50 0.72 0.71 0.63 0.49 0.47 0.40 0.35 0.32 0.25 0.21 0.27 0.27 0.30 0.38 0.22 0.15 0.08
0.04 0.02 0.07 0.10 0.14 0.19 0.26 0.39 0.61 0.68 0.64 0.54 0.48 0.55 0.57 0.63 0.89 1.14 1.22 1.39 1.72 1.61 1.12 0.89 0.80 0.78 0.92 0.94 0.86 0.79 0.78 0.90 0.77 0.50 0.30 0.24 0.18 0.15 0.15 0.19 0.32 0.21 0.10
0.01 0.02 0.01 0.02 0.02 0.01 0.04 0.08 0.22 0.44 0.51 0.46 0.46 0.65 0.84 0.96 1.05 1.27 1.45 1.17 1.09 1.01 0.83 0.82 0.82 1.18 1.56 1.55 1.32 1.06 1.05 1.14 0.89 0.60 0.39 0.27 0.16 0.17 0.17 0.15 0.22 0.37 0.30
0.00 0.01 0.00 0.00 0.00 0.01 0.01 0.00 0.02 0.09 0.18 0.29 0.37 0.57 0.87 1.09 1.26 1.24 1.04 0.83 0.65 0.88 0.94 0.66 0.56 0.63 0.88 1.29 1.66 1.67 1.28 1.07 0.78 0.37 0.25 0.25 0.22 0.21 0.20 0.21 0.22 0.28 0.37
0.00 0.00 0.00 0.00 0.00 0.00 0.00 0.00 0.00 0.01 0.04 0.09 0.17 0.22 0.35 0.55 0.68 0.84 0.66 0.82 0.89 1.00 1.30 1.61 1.98 1.83 1.49 1.24 1.05 0.99 0.70 0.41 0.31 0.30 0.31 0.28 0.31 0.38 0.28 0.24 0.25 0.27 0.31
0.00 0.00 0.00 0.00 0.00 0.00 0.00 0.00 0.00 0.00 0.01 0.03 0.08 0.08 0.19 0.49 0.82 0.91 1.50 2.01 2.41 2.43 2.34 1.78 1.34 1.14 0.86 0.90 0.99 0.83 0.63 0.47 0.34 0.30 0.29 0.27 0.29 0.34 0.38 0.40 0.36 0.36 0.34
0.00 0.00 0.00 0.00 0.00 0.00 0.00 0.00 0.00 0.00 0.00 0.00 0.03 0.04 0.06 0.08 0.13 0.15 0.13 0.12 0.10 0.10 0.08 0.09 0.10 0.10 0.12 0.18 0.26 0.42 0.35 0.38 0.34 0.37 0.50 0.44 0.37 0.37 0.41 0.42 0.49 0.49 0.57
0.00 0.00 0.00 0.00 0.00 0.00 0.00 0.00 0.00 0.00 0.00 0.00 0.01 0.03 0.06 0.03 0.02 0.04 0.04 0.02 0.03 0.02 0.02 0.01 0.01 0.02 0.04 0.07 0.16 0.19 0.24 0.23 0.22 0.33 0.44 0.51 0.43 0.37 0.32 0.32 0.36 0.48 0.50
0.00 0.00 0.00 0.00 0.00 0.00 0.00 0.00 0.00 0.00 0.00 0.00 0.00 0.00 0.02 0.05 0.06 0.04 0.04 0.04 0.02 0.02 0.02 0.02 0.00 0.01 0.02 0.03 0.06 0.16 0.21 0.24 0.19 0.22 0.28 0.32 0.33 0.36 0.34 0.29 0.23 0.20 0.26
0.00 0.00 0.00 0.00 0.00 0.00 0.00 0.00 0.00 0.00 0.00 0.01 0.01 0.01 0.01 0.01 0.02 0.06 0.05 0.02 0.06 0.05 0.05 0.04 0.01 0.01 0.01 0.02 0.03 0.04 0.07 0.10 0.20 0.21 0.20 0.23 0.23 0.23 0.30 0.26 0.22 0.18 0.16
0.00 0.00 0.00 0.00 0.00 0.00 0.00 0.00 0.00 0.00 0.00 0.01 0.01 0.02 0.03 0.04 0.03 0.05 0.06 0.03 0.02 0.02 0.04 0.06 0.08 0.04 0.03 0.05 0.07 0.07 0.13 0.11 0.09 0.13 0.14 0.17 0.19 0.20 0.25 0.30 0.28 0.28 0.25
0.00 0.00 0.00 0.00 0.00 0.00 0.00 0.00 0.00 0.00 0.00 0.01 0.00 0.01 0.01 0.02 0.03 0.03 0.03 0.02 0.01 0.00 0.00 0.00 0.02 0.06 0.09 0.13 0.15 0.16 0.08 0.06 0.07 0.10 0.13 0.12 0.14 0.20 0.21 0.23 0.29 0.21 0.25
0.01 0.01 0.01 0.01 0.00 0.00 0.00 0.00 0.00 0.00 0.00 0.00 0.00 0.00 0.00 0.01 0.02 0.04 0.04 0.04 0.02 0.01 0.00 0.00 0.00 0.02 0.07 0.15 0.33 0.46 0.32 0.19 0.15 0.18 0.19 0.22 0.22 0.22 0.29 0.28 0.24 0.22 0.26
0.01 0.01 0.02 0.02 0.01 0.00 0.00 0.01 0.01 0.01 0.00 0.00 0.00 0.00 0.01 0.02 0.03 0.03 0.04 0.06 0.10 0.06 0.01 0.02 0.00 0.00 0.00 0.00 0.02 0.16 0.40 0.52 0.51 0.32 0.21 0.19 0.20 0.27 0.32 0.45 0.35 0.24 0.21
0.00 0.00 0.00 0.00 0.00 0.00 0.00 0.01 0.01 0.01 0.01 0.01 0.01 0.02 0.02 0.03 0.03 0.04 0.05 0.08 0.11 0.13 0.08 0.05 0.03 0.02 0.00 0.00 0.01 0.01 0.04 0.12 0.12 0.18 0.22 0.25 0.22 0.21 0.22 0.32 0.74 0.94 0.64
0.00 0.00 0.00 0.00 0.00 0.00 0.00 0.01 0.01 0.02 0.03 0.05 0.03 0.05 0.06 0.06 0.07 0.07 0.09 0.13 0.15 0.19 0.16 0.08 0.08 0.04 0.01 0.02 0.02 0.06 0.08 0.05 0.08 0.07 0.10 0.15 0.21 0.27 0.29 0.25 0.27 0.59 1.23
0.00 0.00 0.00 0.00 0.00 0.00 0.00 0.01 0.01 0.00 0.00 0.01 0.01 0.02 0.03 0.04 0.06 0.08 0.11 0.15 0.16 0.16 0.18 0.13 0.07 0.04 0.03 0.03 0.04 0.08 0.09 0.04 0.05 0.10 0.09 0.11 0.16 0.17 0.21 0.30 0.31 0.25 0.35
0.00 0.00 0.00 0.00 0.00 0.00 0.00 0.00 0.00 0.00 0.00 0.00 0.01 0.00 0.01 0.01 0.02 0.02 0.04 0.05 0.04 0.04 0.07 0.07 0.04 0.03 0.02 0.01 0.02 0.05 0.06 0.05 0.04 0.04 0.03 0.04 0.06 0.08 0.13 0.18 0.33 0.40 0.30
0.00 0.00 0.00 0.00 0.00 0.00 0.00 0.00 0.00 0.00 0.00 0.00 0.00 0.00 0.00 0.01 0.02 0.02 0.01 0.02 0.01 0.02 0.02 0.03 0.06 0.06 0.06 0.05 0.04 0.06 0.05 0.04 0.04 0.04 0.03 0.02 0.04 0.06 0.05 0.08 0.11 0.18 0.27
0.00 0.00 0.00 0.00 0.00 0.00 0.00 0.00 0.00 0.00 0.00 0.00 0.00 0.00 0.00 0.00 0.01 0.01 0.02 0.03 0.02 0.00 0.01 0.01 0.02 0.02 0.04 0.07 0.07 0.05 0.04 0.06 0.05 0.06 0.05 0.03 0.02 0.02 0.02 0.04 0.05 0.07 0.09
0.00 0.00 0.00 0.00 0.00 0.00 0.00 0.00 0.00 0.00 0.00 0.00 0.00 0.00 0.00 0.00 0.00 0.00 0.01 0.02 0.03 0.04 0.03 0.03 0.03 0.04 0.05 0.06 0.06 0.06 0.05 0.04 0.04 0.02 0.03 0.02 0.02 0.01 0.00 0.00 0.01 0.02 0.03
0.00 0.00 0.00 0.00 0.00 0.00 0.00 0.00 0.00 0.00 0.00 0.00 0.00 0.00 0.00 0.00 0.00 0.00 0.00 0.00 0.01 0.01 0.03 0.05 0.04 0.08 0.07 0.07 0.06 0.05 0.08 0.13 0.10 0.06 0.08 0.06 0.02 0.01 0.00 0.00 0.01 0.01 0.02
0.01 0.00 0.00 0.00 0.00 0.00 0.00 0.00 0.00 0.00 0.00 0.00 0.00 0.00 0.00 0.00 0.00 0.00 0.00 0.00 0.00 0.01 0.02 0.03 0.04 0.05 0.07 0.05 0.03 0.03 0.04 0.12 0.16 0.16 0.18 0.25 0.08 0.03 0.01 0.01 0.02 0.03 0.06
0.01 0.01 0.00 0.00 0.00 0.00 0.00 0.00 0.00 0.00 0.00 0.01 0.01 0.00 0.00 0.00 0.00 0.00 0.00 0.00 0.00 0.00 0.00 0.00 0.01 0.01 0.01 0.01 0.01 0.01 0.02 0.02 0.07 0.06 0.10 0.20 0.12 0.06 0.05 0.03 0.02 0.05 0.06
0.00 0.01 0.00 0.00 0.00 0.00 0.00 0.00 0.00 0.00 0.00 0.00 0.00 0.00 0.00 0.00 0.00 0.00 0.00 0.00 0.00 0.00 0.00 0.00 0.00 0.00 0.00 0.00 0.01 0.04 0.08 0.10 0.13 0.12 0.14 0.23 0.17 0.15 0.17 0.08 0.04 0.05 0.06

GFSMA_prec_precacc24_156.txt.gz
Total_Precipitation_Accumulation
0.07 0.09 0.10 0.09 0.17 0.14 0.14 0.18 0.17 0.24 0.30 0.22 0.22 0.27 0.18 0.11 0.20 0.27 0.23 0.26 0.21 0.16 0.20 0.21 0.25 0.54 0.57 0.34 0.25 0.32 0.39 0.39 0.36 0.27 0.14 0.16 0.24 0.20 0.18 0.10 0.09 0.03 0.00
0.01 0.01 0.02 0.03 0.04 0.03 0.02 0.03 0.06 0.16 0.22 0.38 0.45 0.46 0.48 0.60 0.55 0.57 0.60 0.46 0.49 0.38 0.47 0.42 0.39 0.50 0.73 0.75 0.69 0.55 0.50 0.46 0.37 0.37 0.32 0.26 0.31 0.24 0.20 0.20 0.15 0.13 0.07
0.00 0.00 0.00 0.00 0.00 0.00 0.00 0.00 0.02 0.06 0.09 0.12 0.20 0.33 0.40 0.49 0.81 1.04 1.17 1.37 1.69 1.58 1.10 0.89 0.80 0.78 0.92 0.94 0.84 0.79 0.79 0.95 0.87 0.56 0.35 0.34 0.28 0.20 0.18 0.17 0.16 0.14 0.09
0.00 0.01 0.00 0.00 0.00 0.00 0.00 0.00 0.00 0.00 0.00 0.01 0.02 0.08 0.33 0.44 0.59 0.98 1.25 1.11 1.03 0.95 0.73 0.77 0.81 1.18 1.55 1.52 1.31 1.07 1.08 1.17 0.91 0.61 0.40 0.33 0.30 0.28 0.32 0.30 0.24 0.30 0.22
0.00 0.00 0.00 0.00 0.00 0.00 0.00 0.00 0.00 0.00 0.00 0.00 0.00 0.00 0.01 0.03 0.11 0.50 0.66 0.51 0.37 0.58 0.67 0.46 0.45 0.57 0.87 1.26 1.64 1.67 1.28 1.09 0.81 0.40 0.26 0.27 0.28 0.33 0.35 0.37 0.36 0.31 0.38
0.00 0.00 0.00 0.00 0.00 0.00 0.00 0.00 0.00 0.00 0.00 0.00 0.00 0.00 0.00 0.00 0.00 0.00 0.00 0.01 0.08 0.36 0.84 1.31 1.80 1.72 1.43 1.22 1.04 0.98 0.71 0.42 0.32 0.33 0.34 0.31 0.34 0.45 0.38 0.37 0.41 0.41 0.45
0.00 0.00 0.00 0.00 0.00 0.00 0.00 0.00 0.00 0.00 0.00 0.00 0.00 0.00 0.00 0.00 0.00 0.00 0.00 0.01 0.07 0.43 0.99 1.09 1.12 1.05 0.81 0.84 0.95 0.82 0.63 0.48 0.35 0.32 0.31 0.29 0.31 0.37 0.41 0.42 0.41 0.42 0.44
0.00 0.00 0.00 0.00 0.00 0.00 0.00 0.00 0.00 0.00 0.00 0.00 0.00 0.00 0.00 0.00 0.00 0.00 0.00 0.00 0.01 0.01 0.02 0.06 0.08 0.07 0.07 0.09 0.20 0.35 0.33 0.38 0.34 0.38 0.53 0.47 0.41 0.42 0.46 0.44 0.50 0.51 0.61
0.00 0.00 0.00 0.00 0.00 0.00 0.00 0.00 0.00 0.00 0.00 0.00 0.00 0.00 0.00 0.00 0.00 0.00 0.00 0.00 0.00 0.00 0.01 0.01 0.01 0.01 0.01 0.01 0.05 0.11 0.16 0.18 0.22 0.34 0.47 0.55 0.47 0.46 0.45 0.45 0.46 0.56 0.54
0.00 0.00 0.00 0.00 0.00 0.00 0.00 0.00 0.00 0.00 0.00 0.00 0.00 0.00 0.00 0.01 0.01 0.00 0.00 0.00 0.00 0.01 0.01 0.01 0.00 0.01 0.02 0.02 0.03 0.08 0.13 0.14 0.17 0.27 0.36 0.40 0.42 0.46 0.46 0.42 0.37 0.35 0.43
0.00 0.00 0.00 0.00 0.00 0.00 0.00 0.00 0.00 0.00 0.00 0.01 0.01 0.01 0.01 0.00 0.01 0.02 0.01 0.00 0.00 0.00 0.00 0.01 0.00 0.00 0.00 0.01 0.02 0.04 0.05 0.08 0.17 0.20 0.24 0.30 0.35 0.35 0.40 0.37 0.34 0.28 0.27
0.00 0.00 0.00 0.00 0.00 0.00 0.00 0.00 0.00 0.00 0.00 0.00 0.00 0.01 0.01 0.03 0.02 0.02 0.01 0.00 0.00 0.00 0.00 0.00 0.00 0.01 0.01 0.03 0.05 0.07 0.12 0.07 0.08 0.14 0.16 0.19 0.22 0.28 0.36 0.41 0.37 0.41 0.46
0.00 0.00 0.00 0.00 0.00 0.00 0.00 0.00 0.00 0.00 0.00 0.00 0.00 0.00 0.00 0.01 0.02 0.02 0.01 0.01 0.00 0.00 0.00 0.00 0.00 0.00 0.00 0.04 0.11 0.13 0.11 0.07 0.06 0.09 0.13 0.16 0.20 0.21 0.23 0.32 0.45 0.36 0.35
0.00 0.00 0.00 0.00 0.00 0.00 0.00 0.00 0.00 0.00 0.00 0.00 0.00 0.00 0.00 0.01 0.02 0.03 0.03 0.02 0.01 0.00 0.00 0.00 0.00 0.00 0.00 0.03 0.24 0.38 0.32 0.19 0.14 0.15 0.16 0.21 0.26 0.28 0.31 0.27 0.27 0.39 0.47
0.00 0.00 0.00 0.00 0.00 0.00 0.00 0.00 0.00 0.00 0.00 0.00 0.00 0.00 0.01 0.02 0.02 0.03 0.03 0.05 0.07 0.04 0.00 0.01 0.00 0.00 0.00 0.00 0.01 0.14 0.39 0.46 0.48 0.33 0.21 0.19 0.21 0.28 0.36 0.51 0.39 0.26 0.26
0.00 0.00 0.00 0.00 0.00 0.00 0.00 0.01 0.01 0.01 0.01 0.01 0.01 0.02 0.02 0.02 0.03 0.03 0.04 0.06 0.08 0.09 0.06 0.04 0.03 0.02 0.00 0.00 0.00 0.01 0.05 0.05 0.09 0.20 0.25 0.25 0.22 0.20 0.23 0.34 0.76 0.96 0.65
0.00 0.00 0.00 0.00 0.00 0.00 0.00 0.01 0.01 0.02 0.03 0.05 0.02 0.04 0.05 0.05 0.06 0.07 0.08 0.10 0.11 0.12 0.10 0.06 0.06 0.03 0.01 0.00 0.00 0.04 0.05 0.01 0.02 0.08 0.14 0.14 0.20 0.26 0.30 0.28 0.30 0.62 1.25
0.00 0.00 0.00 0.00 0.00 0.00 0.00 0.00 0.00 0.00 0.00 0.01 0.01 0.01 0.01 0.02 0.04 0.06 0.09 0.12 0.13 0.13 0.14 0.11 0.06 0.03 0.01 0.01 0.01 0.06 0.07 0.01 0.01 0.03 0.07 0.09 0.12 0.15 0.19 0.29 0.31 0.25 0.35
0.00 0.00 0.00 0.00 0.00 0.00 0.00 0.00 0.00 0.00 0.00 0.00 0.00 0.00 0.00 0.00 0.01 0.01 0.01 0.02 0.01 0.01 0.03 0.02 0.02 0.02 0.01 0.01 0.01 0.02 0.07 0.01 0.01 0.01 0.02 0.07 0.05 0.05 0.10 0.15 0.30 0.37 0.29
0.00 0.00 0.00 0.00 0.00 0.00 0.00 0.00 0.00 0.00 0.00 0.00 0.00 0.00 0.00 0.00 0.01 0.01 0.01 0.01 0.00 0.01 0.00 0.01 0.01 0.01 0.00 0.00 0.00 0.00 0.03 0.04 0.04 0.03 0.01 0.02 0.06 0.04 0.04 0.07 0.10 0.16 0.25
0.00 0.00 0.00 0.01 0.01 0.01 0.01 0.00 0.00 0.00 0.00 0.00 0.00 0.00 0.00 0.00 0.00 0.01 0.01 0.02 0.01 0.00 0.00 0.00 0.00 0.00 0.00 0.00 0.00 0.00 0.00 0.02 0.02 0.03 0.01 0.01 0.05 0.02 0.02 0.03 0.03 0.06 0.08
0.01 0.02 0.02 0.02 0.02 0.02 0.01 0.00 0.00 0.00 0.00 0.00 0.00 0.00 0.00 0.00 0.00 0.00 0.00 0.01 0.02 0.02 0.02 0.01 0.01 0.01 0.02 0.02 0.01 0.00 0.00 0.00 0.01 0.02 0.00 0.00 0.01 0.01 0.00 0.00 0.01 0.01 0.01
0.05 0.05 0.03 0.02 0.02 0.01 0.00 0.00 0.00 0.00 0.00 0.00 0.00 0.00 0.00 0.00 0.00 0.00 0.00 0.00 0.00 0.01 0.02 0.03 0.02 0.05 0.05 0.05 0.02 0.01 0.00 0.00 0.01 0.02 0.00 0.01 0.00 0.00 0.00 0.00 0.00 0.00 0.01
0.10 0.08 0.04 0.02 0.01 0.00 0.00 0.00 0.00 0.00 0.00 0.00 0.00 0.00 0.00 0.00 0.00 0.00 0.00 0.00 0.00 0.00 0.00 0.00 0.01 0.02 0.03 0.02 0.01 0.01 0.00 0.00 0.01 0.02 0.00 0.00 0.00 0.00 0.01 0.00 0.00 0.00 0.01
0.18 0.10 0.03 0.01 0.00 0.00 0.00 0.00 0.00 0.00 0.00 0.00 0.01 0.00 0.00 0.00 0.00 0.00 0.00 0.00 0.00 0.00 0.00 0.00 0.00 0.00 0.00 0.00 0.00 0.00 0.01 0.00 0.00 0.01 0.00 0.03 0.00 0.00 0.01 0.01 0.00 0.00 0.00
0.12 0.05 0.03 0.01 0.00 0.00 0.00 0.00 0.00 0.00 0.00 0.00 0.00 0.00 0.00 0.00 0.00 0.00 0.00 0.00 0.00 0.00 0.00 0.00 0.00 0.00 0.00 0.00 0.00 0.00 0.01 0.02 0.02 0.01 0.00 0.03 0.00 0.01 0.01 0.00 0.00 0.00 0.00

GFSMA_prec_precacc24_162.txt.gz
Total_Precipitation_Accumulation
0.00 0.00 0.00 0.00 0.00 0.00 0.00 0.00 0.00 0.00 0.00 0.00 0.01 0.02 0.01 0.00 0.01 0.02 0.07 0.08 0.10 0.12 0.04 0.05 0.15 0.46 0.53 0.34 0.25 0.34 0.42 0.43 0.43 0.34 0.20 0.21 0.29 0.27 0.24 0.15 0.08 0.03 0.00
0.00 0.00 0.00 0.00 0.00 0.00 0.00 0.00 0.00 0.00 0.00 0.00 0.00 0.00 0.02 0.03 0.01 0.00 0.00 0.02 0.07 0.14 0.17 0.16 0.17 0.32 0.62 0.70 0.69 0.57 0.53 0.48 0.41 0.42 0.37 0.32 0.40 0.38 0.37 0.41 0.36 0.24 0.12
0.00 0.00 0.00 0.00 0.00 0.00 0.00 0.00 0.00 0.00 0.00 0.00 0.00 0.00 0.00 0.00 0.01 0.01 0.03 0.05 0.12 0.15 0.12 0.11 0.13 0.28 0.77 0.86 0.82 0.81 0.81 0.96 0.89 0.59 0.39 0.38 0.32 0.28 0.38 0.37 0.40 0.37 0.26
0.00 0.00 0.00 0.00 0.00 0.00 0.00 0.00 0.00 0.00 0.00 0.00 0.00 0.00 0.00 0.00 0.00 0.00 0.00 0.00 0.01 0.02 0.02 0.02 0.01 0.15 0.79 1.05 1.08 0.98 1.05 1.18 0.93 0.63 0.43 0.35 0.33 0.31 0.40 0.41 0.42 0.48 0.42
0.00 0.00 0.00 0.00 0.00 0.00 0.00 0.00 0.00 0.00 0.00 0.00 0.00 0.00 0.00 0.00 0.00 0.00 0.00 0.00 0.00 0.00 0.00 0.02 0.01 0.02 0.19 0.54 1.01 1.39 1.13 1.02 0.79 0.39 0.27 0.28 0.30 0.35 0.39 0.43 0.45 0.43 0.50
0.00 0.00 0.00 0.00 0.00 0.00 0.00 0.00 0.00 0.00 0.00 0.00 0.00 0.00 0.00 0.00 0.00 0.00 0.00 0.00 0.00 0.00 0.00 0.00 0.01 0.02 0.05 0.07 0.07 0.21 0.40 0.33 0.24 0.23 0.27 0.27 0.31 0.43 0.40 0.41 0.48 0.49 0.54
0.00 0.00 0.00 0.00 0.00 0.00 0.00 0.00 0.00 0.00 0.00 0.00 0.00 0.00 0.00 0.00 0.00 0.00 0.00 0.00 0.00 0.00 0.01 0.01 0.01 0.01 0.04 0.07 0.06 0.08 0.26 0.35 0.24 0.21 0.21 0.22 0.21 0.29 0.38 0.42 0.43 0.45 0.47
0.00 0.00 0.00 0.00 0.00 0.00 0.00 0.00 0.00 0.00 0.00 0.00 0.00 0.00 0.00 0.00 0.00 0.00 0.00 0.00 0.00 0.00 0.00 0.01 0.02 0.02 0.04 0.07 0.14 0.18 0.15 0.18 0.15 0.19 0.28 0.34 0.30 0.33 0.40 0.41 0.47 0.46 0.53
0.00 0.00 0.00 0.00 0.00 0.00 0.00 0.00 0.00 0.00 0.00 0.00 0.00 0.00 0.00 0.00 0.00 0.00 0.00 0.00 0.00 0.00 0.00 0.00 0.00 0.00 0.00 0.01 0.04 0.06 0.11 0.11 0.07 0.10 0.19 0.33 0.35 0.34 0.38 0.41 0.45 0.51 0.48
0.00 0.00 0.00 0.00 0.00 0.00 0.00 0.00 0.00 0.00 0.00 0.00 0.00 0.00 0.00 0.01 0.01 0.00 0.00 0.00 0.00 0.00 0.00 0.00 0.00 0.00 0.01 0.01 0.02 0.05 0.09 0.07 0.11 0.13 0.14 0.18 0.29 0.34 0.33 0.37 0.38 0.38 0.46
0.00 0.00 0.00 0.00 0.00 0.00 0.00 0.00 0.00 0.00 0.00 0.00 0.00 0.00 0.00 0.00 0.01 0.01 0.00 0.00 0.00 0.00 0.00 0.00 0.00 0.00 0.00 0.00 0.00 0.01 0.03 0.03 0.07 0.11 0.13 0.16 0.22 0.26 0.32 0.33 0.34 0.33 0.31
0.00 0.00 0.00 0.00 0.00 0.00 0.00 0.00 0.00 0.00 0.00 0.00 0.00 0.00 0.00 0.01 0.01 0.01 0.01 0.00 0.00 0.00 0.00 0.00 0.00 0.00 0.00 0.00 0.00 0.00 0.02 0.02 0.04 0.06 0.09 0.10 0.11 0.16 0.23 0.27 0.29 0.44 0.51
0.00 0.00 0.00 0.00 0.00 0.00 0.00 0.00 0.00 0.00 0.00 0.00 0.00 0.00 0.00 0.00 0.01 0.00 0.00 0.00 0.00 0.00 0.00 0.00 0.00 0.00 0.00 0.00 0.00 0.00 0.05 0.02 0.02 0.02 0.05 0.10 0.14 0.14 0.16 0.22 0.29 0.30 0.34
0.00 0.00 0.00 0.00 0.00 0.00 0.00 0.00 0.00 0.00 0.00 0.00 0.00 0.00 0.00 0.01 0.01 0.02 0.02 0.02 0.01 0.00 0.00 0.00 0.00 0.00 0.00 0.00 0.00 0.01 0.05 0.03 0.02 0.02 0.02 0.05 0.09 0.15 0.18 0.16 0.16 0.28 0.39
0.00 0.00 0.00 0.00 0.00 0.00 0.00 0.00 0.00 0.00 0.00 0.00 0.00 0.00 0.00 0.01 0.02 0.02 0.02 0.04 0.06 0.03 0.00 0.01 0.00 0.00 0.00 0.00 0.00 0.00 0.03 0.02 0.02 0.04 0.03 0.03 0.06 0.11 0.14 0.16 0.18 0.16 0.20
0.00 0.00 0.00 0.00 0.00 0.00 0.00 0.00 0.00 0.00 0.00 0.00 0.00 0.01 0.01 0.02 0.02 0.03 0.04 0.05 0.06 0.08 0.05 0.04 0.03 0.02 0.00 0.00 0.00 0.01 0.04 0.00 0.02 0.06 0.05 0.04 0.05 0.09 0.12 0.12 0.13 0.32 0.43
0.00 0.00 0.00 0.00 0.00 0.00 0.00 0.00 0.00 0.00 0.00 0.00 0.01 0.02 0.04 0.05 0.05 0.06 0.07 0.09 0.10 0.10 0.10 0.06 0.06 0.03 0.01 0.00 0.00 0.04 0.04 0.00 0.01 0.07 0.08 0.05 0.05 0.09 0.13 0.16 0.15 0.22 0.82
0.00 0.00 0.00 0.00 0.00 0.00 0.00 0.00 0.00 0.00 0.00 0.00 0.00 0.01 0.01 0.01 0.03 0.05 0.07 0.10 0.11 0.10 0.12 0.10 0.06 0.03 0.01 0.01 0.01 0.06 0.07 0.00 0.00 0.03 0.07 0.07 0.06 0.08 0.09 0.11 0.11 0.11 0.18
0.00 0.00 0.00 0.00 0.00 0.00 0.00 0.00 0.00 0.00 0.00 0.01 0.01 0.00 0.00 0.01 0.01 0.00 0.00 0.01 0.01 0.00 0.01 0.01 0.01 0.01 0.01 0.01 0.01 0.02 0.07 0.01 0.01 0.01 0.03 0.11 0.07 0.04 0.06 0.09 0.13 0.17 0.15
0.00 0.00 0.00 0.00 0.00 0.00 0.00 0.00 0.01 0.01 0.01 0.02 0.03 0.01 0.00 0.01 0.01 0.00 0.00 0.00 0.00 0.00 0.00 0.00 0.00 0.00 0.00 0.00 0.00 0.00 0.03 0.04 0.04 0.03 0.02 0.05 0.13 0.04 0.02 0.04 0.05 0.08 0.13
0.00 0.00 0.01 0.02 0.02 0.02 0.02 0.02 0.03 0.02 0.03 0.05 0.02 0.00 0.00 0.00 0.00 0.00 0.00 0.01 0.00 0.00 0.00 0.00 0.00 0.00 0.00 0.00 0.00 0.00 0.00 0.02 0.02 0.03 0.01 0.01 0.08 0.03 0.01 0.02 0.02 0.04 0.06
0.05 0.06 0.06 0.04 0.04 0.08 0.07 0.05 0.04 0.03 0.03 0.02 0.01 0.00 0.00 0.00 0.00 0.00 0.00 0.00 0.00 0.00 0.00 0.00 0.00 0.00 0.00 0.00 0.00 0.00 0.00 0.00 0.01 0.02 0.00 0.00 0.01 0.04 0.01 0.00 0.01 0.01 0.02
0.16 0.17 0.17 0.16 0.17 0.19 0.11 0.06 0.04 0.03 0.03 0.02 0.00 0.00 0.00 0.00 0.00 0.00 0.00 0.00 0.00 0.00 0.00 0.00 0.00 0.02 0.01 0.01 0.00 0.00 0.00 0.00 0.01 0.01 0.00 0.01 0.00 0.00 0.01 0.00 0.00 0.00 0.00
0.31 0.30 0.25 0.27 0.26 0.18 0.11 0.07 0.06 0.03 0.02 0.01 0.00 0.00 0.00 0.00 0.00 0.00 0.00 0.00 0.00 0.00 0.00 0.00 0.00 0.01 0.01 0.00 0.00 0.00 0.00 0.00 0.01 0.01 0.00 0.00 0.00 0.00 0.01 0.00 0.00 0.00 0.00
0.51 0.37 0.31 0.35 0.25 0.12 0.06 0.03 0.02 0.01 0.03 0.02 0.01 0.00 0.00 0.00 0.00 0.00 0.00 0.00 0.00 0.00 0.00 0.00 0.00 0.00 0.00 0.00 0.00 0.00 0.00 0.00 0.00 0.00 0.00 0.02 0.00 0.00 0.01 0.01 0.00 0.00 0.00
0.40 0.28 0.32 0.29 0.15 0.09 0.06 0.04 0.02 0.01 0.01 0.01 0.00 0.00 0.00 0.00 0.00 0.00 0.00 0.00 0.00 0.00 0.00 0.00 0.00 0.00 0.00 0.00 0.00 0.00 0.00 0.00 0.00 0.00 0.00 0.01 0.00 0.00 0.00 0.00 0.00 0.00 0.00

GFSMA_prec_precacc24_165.txt.gz
Total_Precipitation_Accumulation
0.00 0.00 0.00 0.00 0.00 0.00 0.00 0.00 0.00 0.00 0.00 0.01 0.02 0.03 0.02 0.02 0.01 0.01 0.01 0.02 0.07 0.04 0.01 0.01 0.08 0.36 0.43 0.28 0.20 0.26 0.36 0.42 0.44 0.35 0.21 0.20 0.30 0.30 0.31 0.25 0.20 0.16 0.12
0.00 0.00 0.00 0.00 0.00 0.00 0.00 0.00 0.00 0.00 0.00 0.00 0.01 0.02 0.05 0.04 0.01 0.00 0.00 0.00 0.00 0.03 0.08 0.10 0.08 0.20 0.46 0.53 0.47 0.37 0.40 0.40 0.37 0.42 0.38 0.31 0.38 0.38 0.37 0.43 0.44 0.37 0.25
0.00 0.00 0.00 0.00 0.00 0.00 0.00 0.00 0.00 0.00 0.00 0.00 0.00 0.00 0.00 0.00 0.00 0.00 0.00 0.00 0.00 0.01 0.01 0.04 0.10 0.11 0.23 0.29 0.27 0.30 0.53 0.81 0.79 0.53 0.38 0.38 0.31 0.29 0.39 0.39 0.40 0.39 0.35
0.00 0.00 0.00 0.00 0.00 0.00 0.00 0.00 0.00 0.00 0.00 0.00 0.00 0.00 0.00 0.00 0.00 0.00 0.00 0.00 0.00 0.00 0.01 0.02 0.01 0.02 0.03 0.06 0.10 0.18 0.23 0.46 0.68 0.50 0.35 0.32 0.33 0.31 0.40 0.41 0.42 0.45 0.42
0.00 0.00 0.00 0.00 0.00 0.00 0.00 0.00 0.00 0.00 0.00 0.00 0.00 0.00 0.00 0.00 0.00 0.00 0.00 0.00 0.00 0.00 0.00 0.02 0.01 0.01 0.01 0.00 0.01 0.09 0.20 0.24 0.53 0.31 0.19 0.20 0.25 0.34 0.39 0.43 0.40 0.41 0.45
0.00 0.00 0.00 0.00 0.00 0.00 0.00 0.00 0.00 0.00 0.00 0.00 0.00 0.00 0.00 0.00 0.00 0.00 0.00 0.00 0.00 0.00 0.00 0.00 0.00 0.02 0.03 0.01 0.01 0.08 0.16 0.13 0.14 0.15 0.14 0.11 0.14 0.26 0.31 0.39 0.45 0.45 0.51
0.00 0.00 0.00 0.00 0.00 0.00 0.00 0.00 0.00 0.00 0.00 0.00 0.00 0.00 0.00 0.00 0.00 0.00 0.00 0.00 0.00 0.00 0.00 0.01 0.01 0.01 0.03 0.05 0.04 0.05 0.13 0.19 0.16 0.17 0.17 0.14 0.11 0.16 0.20 0.29 0.36 0.40 0.45
0.00 0.00 0.00 0.00 0.00 0.00 0.00 0.00 0.00 0.00 0.00 0.00 0.00 0.00 0.00 0.00 0.00 0.00 0.00 0.00 0.00 0.00 0.00 0.00 0.00 0.00 0.02 0.05 0.11 0.15 0.14 0.13 0.12 0.15 0.19 0.19 0.19 0.25 0.29 0.28 0.33 0.34 0.44
0.00 0.00 0.00 0.00 0.00 0.00 0.00 0.00 0.00 0.00 0.00 0.00 0.00 0.00 0.00 0.00 0.00 0.00 0.00 0.00 0.00 0.00 0.00 0.00 0.00 0.00 0.00 0.00 0.03 0.05 0.11 0.10 0.06 0.08 0.13 0.16 0.19 0.24 0.29 0.33 0.35 0.38 0.35
0.00 0.00 0.00 0.00 0.00 0.00 0.00 0.00 0.00 0.00 0.00 0.00 0.00 0.00 0.00 0.00 0.01 0.00 0.00 0.00 0.00 0.00 0.00 0.00 0.00 0.00 0.00 0.01 0.02 0.04 0.06 0.05 0.09 0.12 0.13 0.15 0.18 0.21 0.21 0.27 0.29 0.31 0.38
0.00 0.00 0.00 0.00 0.00 0.00 0.00 0.00 0.00 0.00 0.00 0.00 0.00 0.00 0.00 0.00 0.00 0.01 0.00 0.00 0.00 0.00 0.00 0.00 0.00 0.00 0.00 0.00 0.00 0.01 0.03 0.02 0.03 0.06 0.10 0.16 0.18 0.18 0.20 0.25 0.29 0.28 0.24
0.00 0.00 0.00 0.00 0.00 0.00 0.00 0.00 0.00 0.00 0.00 0.00 0.00 0.00 0.00 0.00 0.00 0.00 0.00 0.00 0.00 0.00 0.00 0.00 0.00 0.00 0.00 0.00 0.00 0.00 0.02 0.01 0.03 0.05 0.09 0.11 0.11 0.14 0.18 0.21 0.25 0.38 0.46
0.00 0.00 0.00 0.00 0.00 0.00 0.00 0.00 0.00 0.00 0.00 0.00 0.00 0.00 0.00 0.00 0.01 0.00 0.00 0.00 0.00 0.00 0.00 0.00 0.00 0.00 0.00 0.00 0.00 0.00 0.05 0.02 0.02 0.02 0.05 0.10 0.12 0.12 0.14 0.20 0.27 0.26 0.29
0.00 0.00 0.00 0.00 0.00 0.00 0.00 0.00 0.00 0.00 0.00 0.00 0.00 0.00 0.00 0.00 0.01 0.01 0.01 0.01 0.01 0.00 0.00 0.00 0.00 0.00 0.00 0.00 0.00 0.01 0.05 0.03 0.02 0.02 0.02 0.05 0.09 0.14 0.14 0.11 0.15 0.27 0.37
0.00 0.00 0.00 0.00 0.00 0.00 0.00 0.00 0.00 0.00 0.00 0.00 0.00 0.00 0.00 0.00 0.01 0.01 0.01 0.03 0.05 0.03 0.00 0.01 0.00 0.00 0.00 0.00 0.00 0.00 0.03 0.02 0.02 0.04 0.03 0.03 0.05 0.09 0.12 0.13 0.13 0.13 0.19
0.00 0.00 0.00 0.00 0.00 0.00 0.00 0.00 0.00 0.00 0.00 0.00 0.00 0.00 0.00 0.00 0.00 0.01 0.02 0.03 0.05 0.07 0.05 0.04 0.03 0.02 0.00 0.00 0.00 0.01 0.04 0.01 0.03 0.06 0.05 0.03 0.03 0.05 0.09 0.09 0.10 0.12 0.14
0.00 0.00 0.00 0.00 0.00 0.00 0.00 0.00 0.00 0.00 0.00 0.00 0.00 0.00 0.00 0.00 0.00 0.02 0.05 0.07 0.08 0.09 0.09 0.06 0.06 0.03 0.01 0.00 0.00 0.04 0.04 0.00 0.01 0.07 0.08 0.04 0.02 0.03 0.05 0.08 0.07 0.08 0.10
0.00 0.00 0.00 0.00 0.00 0.00 0.00 0.00 0.00 0.00 0.00 0.00 0.00 0.00 0.00 0.00 0.01 0.01 0.04 0.08 0.09 0.09 0.11 0.10 0.06 0.03 0.01 0.01 0.01 0.06 0.07 0.00 0.00 0.03 0.08 0.07 0.03 0.02 0.02 0.03 0.03 0.04 0.06
0.00 0.00 0.00 0.00 0.00 0.00 0.00 0.00 0.00 0.00 0.00 0.01 0.01 0.01 0.01 0.03 0.04 0.03 0.02 0.02 0.01 0.01 0.01 0.01 0.01 0.01 0.01 0.01 0.01 0.02 0.07 0.01 0.01 0.02 0.04 0.11 0.06 0.02 0.02 0.03 0.04 0.04 0.06
0.00 0.00 0.00 0.00 0.00 0.00 0.00 0.00 0.01 0.01 0.01 0.02 0.03 0.02 0.01 0.01 0.02 0.02 0.02 0.02 0.01 0.01 0.00 0.00 0.00 0.00 0.00 0.00 0.00 0.00 0.03 0.04 0.04 0.03 0.02 0.05 0.12 0.03 0.02 0.03 0.03 0.03 0.06
0.00 0.01 0.01 0.03 0.04 0.04 0.02 0.02 0.03 0.02 0.03 0.06 0.04 0.02 0.00 0.00 0.00 0.00 0.00 0.01 0.00 0.00 0.00 0.00 0.00 0.00 0.00 0.00 0.00 0.00 0.00 0.02 0.02 0.03 0.01 0.01 0.08 0.03 0.01 0.01 0.02 0.04 0.05
0.05 0.07 0.09 0.09 0.10 0.10 0.08 0.05 0.05 0.04 0.06 0.07 0.05 0.01 0.00 0.00 0.00 0.00 0.00 0.00 0.00 0.00 0.00 0.00 0.00 0.00 0.00 0.00 0.00 0.00 0.00 0.00 0.01 0.01 0.00 0.01 0.02 0.04 0.01 0.00 0.01 0.01 0.02
0.17 0.24 0.28 0.27 0.24 0.22 0.13 0.08 0.06 0.07 0.08 0.06 0.02 0.00 0.00 0.00 0.00 0.00 0.00 0.00 0.00 0.00 0.00 0.00 0.00 0.01 0.00 0.00 0.00 0.00 0.00 0.00 0.00 0.00 0.00 0.01 0.00 0.00 0.01 0.00 0.00 0.00 0.00
0.38 0.40 0.37 0.38 0.34 0.24 0.17 0.14 0.15 0.15 0.11 0.07 0.03 0.01 0.00 0.00 0.00 0.00 0.00 0.00 0.00 0.00 0.00 0.00 0.00 0.00 0.00 0.00 0.00 0.00 0.00 0.00 0.01 0.00 0.00 0.00 0.00 0.00 0.01 0.00 0.00 0.00 0.00
0.59 0.47 0.41 0.43 0.31 0.19 0.14 0.11 0.13 0.14 0.10 0.06 0.02 0.00 0.00 0.00 0.00 0.00 0.00 0.00 0.00 0.00 0.00 0.00 0.00 0.00 0.00 0.00 0.00 0.00 0.00 0.00 0.00 0.00 0.00 0.02 0.00 0.00 0.01 0.01 0.00 0.00 0.00
0.43 0.33 0.40 0.36 0.20 0.14 0.12 0.12 0.12 0.13 0.09 0.03 0.00 0.00 0.00 0.00 0.00 0.00 0.00 0.00 0.00 0.00 0.00 0.00 0.00 0.00 0.00 0.00 0.00 0.00 0.00 0.00 0.00 0.00 0.00 0.00 0.00 0.00 0.00 0.00 0.00 0.00 0.00

GFSMA_prec_precacc24_168.txt.gz
Total_Precipitation_Accumulation
0.00 0.00 0.00 0.00 0.00 0.00 0.00 0.00 0.00 0.00 0.00 0.01 0.03 0.05 0.03 0.02 0.01 0.01 0.01 0.02 0.04 0.03 0.04 0.03 0.10 0.37 0.43 0.27 0.17 0.21 0.27 0.27 0.29 0.23 0.13 0.17 0.28 0.28 0.28 0.25 0.22 0.20 0.14
0.00 0.00 0.00 0.00 0.00 0.00 0.00 0.00 0.00 0.00 0.00 0.00 0.02 0.03 0.06 0.05 0.02 0.02 0.01 0.01 0.01 0.01 0.01 0.03 0.05 0.17 0.40 0.43 0.39 0.29 0.22 0.21 0.18 0.21 0.21 0.17 0.24 0.29 0.29 0.35 0.43 0.38 0.27
0.00 0.00 0.00 0.00 0.00 0.00 0.00 0.00 0.00 0.00 0.00 0.00 0.00 0.02 0.01 0.01 0.00 0.00 0.00 0.00 0.00 0.01 0.01 0.02 0.02 0.03 0.10 0.18 0.18 0.15 0.23 0.37 0.40 0.25 0.17 0.20 0.19 0.21 0.35 0.36 0.38 0.38 0.35
0.00 0.00 0.00 0.00 0.00 0.00 0.00 0.00 0.00 0.00 0.00 0.00 0.00 0.00 0.00 0.00 0.00 0.00 0.00 0.00 0.00 0.00 0.01 0.02 0.01 0.01 0.03 0.05 0.08 0.11 0.10 0.13 0.16 0.21 0.20 0.24 0.30 0.30 0.37 0.39 0.38 0.35 0.36
0.00 0.00 0.00 0.00 0.00 0.00 0.00 0.00 0.00 0.00 0.00 0.00 0.00 0.00 0.00 0.00 0.00 0.00 0.00 0.00 0.00 0.00 0.00 0.02 0.01 0.01 0.01 0.00 0.01 0.05 0.09 0.08 0.10 0.10 0.12 0.15 0.17 0.22 0.29 0.37 0.38 0.34 0.33
0.00 0.00 0.00 0.00 0.00 0.00 0.00 0.00 0.00 0.00 0.00 0.00 0.00 0.00 0.00 0.00 0.00 0.00 0.00 0.00 0.00 0.00 0.00 0.00 0.00 0.02 0.03 0.01 0.01 0.02 0.06 0.09 0.12 0.14 0.13 0.09 0.08 0.13 0.17 0.25 0.33 0.42 0.46
0.00 0.00 0.00 0.00 0.00 0.00 0.00 0.00 0.00 0.00 0.00 0.00 0.00 0.00 0.00 0.00 0.00 0.00 0.00 0.00 0.00 0.00 0.00 0.00 0.00 0.01 0.03 0.05 0.03 0.05 0.12 0.13 0.12 0.13 0.12 0.08 0.06 0.06 0.07 0.13 0.22 0.30 0.39
0.00 0.00 0.00 0.00 0.00 0.00 0.00 0.00 0.00 0.00 0.00 0.00 0.00 0.00 0.00 0.00 0.00 0.00 0.00 0.00 0.00 0.00 0.00 0.00 0.00 0.00 0.00 0.01 0.06 0.08 0.07 0.05 0.05 0.06 0.07 0.07 0.09 0.12 0.18 0.18 0.20 0.24 0.29
0.00 0.00 0.00 0.00 0.00 0.00 0.00 0.00 0.00 0.00 0.00 0.00 0.00 0.00 0.00 0.00 0.00 0.00 0.00 0.00 0.00 0.00 0.00 0.00 0.00 0.00 0.00 0.00 0.02 0.04 0.07 0.08 0.06 0.05 0.07 0.07 0.14 0.17 0.19 0.22 0.24 0.24 0.21
0.00 0.00 0.00 0.00 0.00 0.00 0.00 0.00 0.00 0.00 0.00 0.00 0.00 0.00 0.00 0.00 0.00 0.00 0.00 0.00 0.00 0.00 0.00 0.00 0.00 0.00 0.00 0.00 0.01 0.02 0.03 0.04 0.09 0.11 0.13 0.14 0.17 0.19 0.18 0.20 0.22 0.24 0.29
0.00 0.00 0.00 0.00 0.00 0.00 0.00 0.00 0.00 0.00 0.00 0.00 0.00 0.00 0.00 0.00 0.00 0.00 0.00 0.00 0.00 0.00 0.00 0.00 0.00 0.00 0.00 0.00 0.00 0.01 0.02 0.01 0.03 0.05 0.09 0.16 0.18 0.19 0.20 0.26 0.28 0.27 0.23
0.00 0.00 0.00 0.00 0.00 0.00 0.00 0.00 0.00 0.00 0.00 0.00 0.00 0.00 0.00 0.00 0.00 0.00 0.00 0.00 0.00 0.00 0.00 0.00 0.00 0.00 0.00 0.00 0.00 0.00 0.02 0.01 0.03 0.04 0.08 0.10 0.10 0.15 0.18 0.21 0.25 0.37 0.46
0.00 0.00 0.00 0.00 0.00 0.00 0.00 0.00 0.00 0.00 0.00 0.00 0.00 0.00 0.00 0.00 0.00 0.00 0.00 0.00 0.00 0.00 0.00 0.00 0.00 0.00 0.00 0.00 0.00 0.00 0.05 0.02 0.02 0.02 0.05 0.09 0.12 0.12 0.14 0.19 0.25 0.24 0.26
0.00 0.00 0.00 0.00 0.00 0.00 0.00 0.00 0.00 0.00 0.00 0.00 0.00 0.00 0.00 0.00 0.00 0.00 0.00 0.01 0.00 0.00 0.00 0.00 0.00 0.00 0.00 0.00 0.00 0.01 0.05 0.03 0.02 0.02 0.02 0.04 0.08 0.13 0.14 0.10 0.13 0.24 0.34
0.00 0.00 0.00 0.00 0.00 0.00 0.00 0.00 0.00 0.00 0.00 0.00 0.00 0.00 0.00 0.00 0.00 0.00 0.00 0.01 0.02 0.01 0.00 0.01 0.00 0.00 0.00 0.00 0.00 0.00 0.03 0.02 0.02 0.04 0.02 0.03 0.05 0.09 0.12 0.12 0.11 0.09 0.14
0.00 0.00 0.00 0.00 0.00 0.00 0.00 0.00 0.00 0.00 0.00 0.00 0.00 0.00 0.00 0.00 0.00 0.00 0.01 0.01 0.02 0.03 0.03 0.04 0.03 0.02 0.00 0.00 0.00 0.01 0.04 0.01 0.03 0.05 0.05 0.03 0.03 0.05 0.09 0.09 0.09 0.10 0.11
0.00 0.00 0.00 0.00 0.00 0.00 0.00 0.00 0.00 0.00 0.00 0.00 0.00 0.00 0.00 0.00 0.00 0.00 0.00 0.01 0.03 0.04 0.05 0.05 0.06 0.03 0.01 0.00 0.00 0.04 0.04 0.00 0.02 0.06 0.08 0.04 0.01 0.02 0.05 0.08 0.06 0.07 0.08
0.00 0.00 0.00 0.00 0.00 0.00 0.00 0.00 0.00 0.00 0.00 0.00 0.00 0.00 0.00 0.00 0.00 0.01 0.01 0.01 0.01 0.02 0.04 0.07 0.05 0.03 0.01 0.01 0.01 0.06 0.07 0.00 0.01 0.04 0.07 0.06 0.02 0.01 0.01 0.02 0.03 0.04 0.05
0.00 0.00 0.00 0.00 0.00 0.00 0.00 0.00 0.00 0.00 0.00 0.01 0.01 0.01 0.01 0.03 0.04 0.03 0.02 0.01 0.01 0.01 0.01 0.01 0.01 0.01 0.01 0.01 0.01 0.02 0.07 0.01 0.01 0.03 0.04 0.11 0.05 0.01 0.01 0.01 0.02 0.02 0.02
0.00 0.00 0.00 0.00 0.00 0.00 0.00 0.00 0.01 0.01 0.01 0.02 0.03 0.02 0.01 0.01 0.02 0.02 0.02 0.02 0.01 0.01 0.01 0.00 0.00 0.00 0.00 0.00 0.00 0.00 0.03 0.04 0.04 0.03 0.02 0.05 0.12 0.03 0.01 0.02 0.02 0.02 0.02
0.00 0.01 0.01 0.03 0.04 0.05 0.04 0.03 0.04 0.03 0.03 0.06 0.04 0.02 0.00 0.02 0.04 0.02 0.01 0.01 0.00 0.00 0.00 0.00 0.00 0.00 0.00 0.00 0.00 0.00 0.00 0.02 0.02 0.03 0.02 0.02 0.08 0.03 0.01 0.01 0.01 0.02 0.03
0.05 0.08 0.09 0.09 0.12 0.16 0.15 0.10 0.07 0.05 0.06 0.07 0.05 0.04 0.03 0.04 0.04 0.01 0.00 0.00 0.00 0.00 0.00 0.00 0.00 0.00 0.00 0.00 0.00 0.00 0.00 0.00 0.00 0.01 0.01 0.01 0.02 0.04 0.01 0.00 0.01 0.01 0.02
0.17 0.24 0.28 0.29 0.30 0.30 0.22 0.12 0.07 0.07 0.08 0.07 0.05 0.04 0.03 0.04 0.02 0.01 0.01 0.00 0.00 0.00 0.00 0.00 0.00 0.00 0.00 0.00 0.00 0.00 0.00 0.00 0.00 0.00 0.00 0.01 0.00 0.00 0.01 0.00 0.01 0.00 0.01
0.38 0.40 0.38 0.41 0.41 0.33 0.22 0.16 0.15 0.17 0.15 0.14 0.11 0.08 0.05 0.03 0.02 0.01 0.00 0.00 0.00 0.00 0.00 0.00 0.00 0.00 0.00 0.00 0.00 0.00 0.00 0.00 0.00 0.00 0.00 0.01 0.01 0.00 0.01 0.00 0.00 0.00 0.00
0.59 0.47 0.42 0.47 0.35 0.23 0.16 0.12 0.15 0.18 0.16 0.13 0.08 0.05 0.03 0.02 0.01 0.00 0.00 0.00 0.00 0.00 0.00 0.00 0.00 0.00 0.00 0.00 0.00 0.00 0.00 0.00 0.00 0.00 0.00 0.01 0.00 0.00 0.01 0.01 0.00 0.00 0.00
0.44 0.34 0.42 0.38 0.22 0.17 0.16 0.16 0.17 0.19 0.15 0.09 0.04 0.02 0.01 0.01 0.00 0.00 0.00 0.00 0.00 0.00 0.00 0.00 0.00 0.00 0.00 0.00 0.00 0.00 0.00 0.00 0.00 0.00 0.00 0.00 0.00 0.00 0.00 0.00 0.00 0.00 0.00

GFSMA_prec_precacc24_174.txt.gz
Total_Precipitation_Accumulation
0.00 0.01 0.01 0.01 0.00 0.00 0.00 0.00 0.00 0.00 0.01 0.01 0.04 0.07 0.04 0.07 0.11 0.12 0.13 0.24 0.27 0.29 0.14 0.11 0.09 0.11 0.13 0.11 0.07 0.07 0.09 0.11 0.19 0.18 0.10 0.08 0.12 0.14 0.17 0.17 0.18 0.20 0.16
0.02 0.04 0.01 0.00 0.00 0.00 0.00 0.00 0.00 0.00 0.01 0.01 0.03 0.04 0.07 0.05 0.03 0.05 0.06 0.12 0.11 0.10 0.07 0.04 0.04 0.05 0.06 0.09 0.09 0.09 0.07 0.13 0.13 0.15 0.14 0.12 0.15 0.16 0.18 0.24 0.30 0.27 0.20
0.04 0.00 0.00 0.00 0.00 0.00 0.00 0.00 0.00 0.00 0.00 0.00 0.01 0.03 0.05 0.04 0.05 0.06 0.10 0.12 0.11 0.07 0.05 0.02 0.02 0.01 0.03 0.05 0.04 0.03 0.04 0.10 0.16 0.13 0.13 0.17 0.15 0.16 0.28 0.26 0.29 0.29 0.27
0.03 0.00 0.00 0.00 0.00 0.00 0.00 0.00 0.00 0.00 0.00 0.00 0.01 0.00 0.00 0.04 0.05 0.02 0.04 0.07 0.08 0.02 0.01 0.01 0.00 0.00 0.01 0.02 0.03 0.04 0.04 0.04 0.05 0.08 0.11 0.15 0.21 0.22 0.28 0.29 0.31 0.27 0.24
0.00 0.00 0.00 0.00 0.00 0.00 0.00 0.00 0.00 0.00 0.00 0.00 0.00 0.00 0.00 0.01 0.02 0.01 0.01 0.01 0.00 0.00 0.00 0.00 0.00 0.00 0.00 0.00 0.01 0.02 0.03 0.03 0.03 0.04 0.04 0.05 0.09 0.16 0.21 0.24 0.26 0.24 0.23
0.00 0.00 0.00 0.00 0.00 0.00 0.00 0.00 0.00 0.00 0.00 0.00 0.00 0.00 0.00 0.00 0.01 0.03 0.00 0.00 0.00 0.00 0.00 0.00 0.00 0.00 0.00 0.00 0.00 0.01 0.02 0.03 0.02 0.03 0.04 0.03 0.04 0.09 0.12 0.18 0.24 0.25 0.28
0.00 0.00 0.00 0.00 0.00 0.00 0.00 0.00 0.00 0.00 0.00 0.00 0.00 0.00 0.00 0.00 0.00 0.00 0.00 0.00 0.00 0.00 0.00 0.00 0.00 0.00 0.00 0.00 0.00 0.01 0.01 0.02 0.02 0.03 0.03 0.02 0.02 0.04 0.03 0.03 0.07 0.12 0.19
0.00 0.00 0.00 0.00 0.00 0.00 0.00 0.00 0.00 0.00 0.00 0.00 0.00 0.00 0.00 0.00 0.01 0.00 0.01 0.00 0.00 0.00 0.00 0.00 0.00 0.00 0.00 0.00 0.00 0.00 0.01 0.01 0.01 0.03 0.03 0.03 0.04 0.05 0.05 0.04 0.03 0.03 0.07
0.01 0.01 0.01 0.01 0.00 0.00 0.00 0.00 0.00 0.00 0.00 0.00 0.00 0.00 0.00 0.00 0.00 0.00 0.01 0.00 0.00 0.00 0.00 0.00 0.00 0.00 0.00 0.00 0.00 0.00 0.00 0.02 0.03 0.03 0.04 0.04 0.06 0.10 0.15 0.15 0.13 0.11 0.09
0.00 0.01 0.02 0.02 0.00 0.00 0.00 0.00 0.00 0.00 0.00 0.00 0.00 0.00 0.00 0.00 0.00 0.00 0.00 0.00 0.00 0.00 0.00 0.00 0.00 0.00 0.00 0.00 0.00 0.00 0.01 0.00 0.03 0.06 0.10 0.10 0.12 0.12 0.14 0.17 0.18 0.20 0.24
0.00 0.00 0.00 0.00 0.00 0.00 0.00 0.00 0.00 0.00 0.00 0.00 0.00 0.00 0.00 0.00 0.00 0.00 0.00 0.00 0.00 0.00 0.00 0.00 0.00 0.00 0.00 0.00 0.00 0.00 0.01 0.01 0.01 0.02 0.06 0.12 0.17 0.17 0.16 0.17 0.20 0.20 0.20
0.00 0.00 0.00 0.00 0.00 0.00 0.00 0.00 0.00 0.00 0.00 0.00 0.00 0.00 0.00 0.00 0.00 0.00 0.00 0.00 0.00 0.00 0.00 0.00 0.00 0.00 0.00 0.00 0.00 0.00 0.02 0.01 0.03 0.04 0.06 0.07 0.09 0.14 0.17 0.18 0.17 0.25 0.33
0.00 0.00 0.00 0.00 0.00 0.00 0.00 0.00 0.00 0.00 0.00 0.00 0.00 0.00 0.00 0.00 0.00 0.00 0.00 0.00 0.00 0.00 0.00 0.00 0.00 0.00 0.00 0.00 0.00 0.00 0.05 0.02 0.02 0.02 0.04 0.09 0.11 0.11 0.13 0.18 0.24 0.23 0.21
0.00 0.00 0.00 0.00 0.00 0.00 0.00 0.00 0.00 0.00 0.00 0.00 0.00 0.00 0.00 0.00 0.00 0.00 0.00 0.00 0.00 0.00 0.00 0.00 0.00 0.00 0.00 0.00 0.00 0.01 0.05 0.03 0.02 0.02 0.02 0.04 0.08 0.13 0.14 0.10 0.13 0.24 0.32
0.00 0.00 0.00 0.00 0.00 0.00 0.00 0.00 0.00 0.00 0.00 0.00 0.00 0.00 0.00 0.00 0.00 0.00 0.00 0.00 0.00 0.00 0.00 0.00 0.00 0.00 0.00 0.00 0.00 0.00 0.03 0.02 0.02 0.04 0.02 0.02 0.04 0.08 0.12 0.12 0.11 0.09 0.14
0.00 0.00 0.00 0.00 0.00 0.00 0.00 0.00 0.00 0.00 0.00 0.00 0.00 0.00 0.00 0.00 0.00 0.00 0.00 0.00 0.00 0.00 0.00 0.00 0.00 0.00 0.00 0.00 0.00 0.01 0.03 0.01 0.03 0.05 0.04 0.02 0.02 0.05 0.09 0.09 0.09 0.10 0.10
0.00 0.00 0.00 0.00 0.00 0.00 0.00 0.00 0.00 0.00 0.00 0.00 0.00 0.00 0.00 0.00 0.00 0.00 0.00 0.00 0.00 0.00 0.00 0.00 0.00 0.00 0.00 0.00 0.00 0.02 0.03 0.00 0.02 0.06 0.07 0.03 0.01 0.02 0.04 0.08 0.06 0.07 0.08
0.00 0.00 0.00 0.00 0.00 0.00 0.00 0.00 0.00 0.00 0.00 0.00 0.00 0.00 0.00 0.00 0.00 0.01 0.01 0.00 0.00 0.00 0.00 0.00 0.00 0.00 0.00 0.00 0.00 0.03 0.03 0.00 0.01 0.04 0.07 0.06 0.01 0.01 0.01 0.02 0.03 0.04 0.05
0.00 0.00 0.00 0.00 0.00 0.00 0.00 0.00 0.00 0.00 0.00 0.01 0.01 0.01 0.01 0.03 0.04 0.03 0.02 0.01 0.01 0.00 0.01 0.00 0.00 0.00 0.00 0.00 0.00 0.01 0.05 0.02 0.02 0.03 0.04 0.10 0.05 0.01 0.01 0.02 0.02 0.02 0.02
0.00 0.00 0.00 0.00 0.00 0.00 0.00 0.00 0.01 0.01 0.01 0.02 0.03 0.02 0.01 0.01 0.02 0.02 0.02 0.02 0.01 0.01 0.01 0.01 0.01 0.00 0.00 0.00 0.00 0.00 0.03 0.04 0.03 0.02 0.02 0.05 0.12 0.03 0.01 0.02 0.02 0.03 0.02
0.00 0.01 0.01 0.03 0.04 0.05 0.04 0.03 0.04 0.03 0.04 0.06 0.04 0.02 0.00 0.02 0.05 0.05 0.03 0.02 0.02 0.02 0.02 0.02 0.01 0.00 0.01 0.02 0.01 0.01 0.01 0.03 0.03 0.03 0.02 0.02 0.08 0.03 0.01 0.01 0.02 0.03 0.03
0.05 0.08 0.09 0.09 0.12 0.16 0.15 0.11 0.09 0.08 0.08 0.07 0.05 0.04 0.03 0.04 0.06 0.04 0.02 0.02 0.01 0.02 0.02 0.02 0.01 0.01 0.01 0.01 0.01 0.00 0.00 0.00 0.01 0.02 0.01 0.01 0.02 0.04 0.01 0.00 0.01 0.02 0.03
0.17 0.24 0.28 0.29 0.30 0.30 0.24 0.15 0.12 0.10 0.09 0.07 0.06 0.04 0.04 0.05 0.05 0.05 0.05 0.03 0.01 0.01 0.01 0.01 0.01 0.01 0.00 0.00 0.00 0.00 0.00 0.00 0.00 0.00 0.00 0.01 0.00 0.00 0.01 0.00 0.01 0.01 0.01
0.38 0.40 0.38 0.41 0.41 0.33 0.24 0.18 0.18 0.18 0.16 0.15 0.12 0.09 0.07 0.05 0.05 0.04 0.02 0.02 0.02 0.01 0.00 0.01 0.01 0.00 0.00 0.00 0.00 0.00 0.00 0.00 0.00 0.00 0.00 0.01 0.01 0.00 0.01 0.00 0.00 0.00 0.01
0.59 0.47 0.43 0.47 0.35 0.24 0.16 0.13 0.16 0.19 0.17 0.14 0.09 0.07 0.04 0.03 0.03 0.01 0.01 0.02 0.03 0.03 0.01 0.00 0.00 0.00 0.00 0.00 0.00 0.00 0.00 0.00 0.00 0.01 0.00 0.02 0.01 0.01 0.02 0.01 0.00 0.00 0.00
0.44 0.35 0.43 0.39 0.23 0.17 0.16 0.16 0.18 0.20 0.16 0.11 0.06 0.03 0.01 0.01 0.01 0.01 0.01 0.01 0.02 0.02 0.01 0.01 0.01 0.01 0.00 0.00 0.00 0.00 0.00 0.00 0.00 0.00 0.00 0.01 0.01 0.01 0.01 0.01 0.00 0.00 0.00

GFSMA_prec_precacc24_180.txt.gz
Total_Precipitation_Accumulation
0.21 0.31 0.44 0.62 0.71 1.03 1.22 0.47 0.13 0.05 0.02 0.03 0.08 0.18 0.10 0.11 0.16 0.20 0.23 0.41 0.38 0.62 0.65 0.45 0.30 0.42 0.35 0.30 0.21 0.15 0.11 0.10 0.11 0.10 0.08 0.08 0.12 0.14 0.17 0.19 0.20 0.23 0.18
0.32 0.47 0.59 0.84 1.01 1.11 0.74 0.11 0.03 0.01 0.02 0.03 0.10 0.11 0.09 0.06 0.04 0.05 0.06 0.17 0.27 0.43 0.57 0.38 0.36 0.22 0.16 0.14 0.11 0.08 0.04 0.03 0.05 0.06 0.06 0.07 0.10 0.15 0.18 0.24 0.31 0.27 0.21
0.49 0.55 0.75 0.54 0.28 0.11 0.05 0.01 0.00 0.00 0.03 0.02 0.03 0.04 0.05 0.05 0.05 0.07 0.12 0.14 0.16 0.16 0.17 0.15 0.08 0.03 0.04 0.04 0.04 0.03 0.02 0.02 0.02 0.03 0.04 0.04 0.05 0.09 0.21 0.22 0.28 0.29 0.28
0.61 0.56 0.28 0.06 0.02 0.01 0.00 0.00 0.00 0.03 0.02 0.02 0.02 0.00 0.01 0.04 0.07 0.05 0.07 0.12 0.17 0.11 0.06 0.03 0.02 0.00 0.01 0.02 0.02 0.02 0.01 0.01 0.01 0.02 0.03 0.02 0.04 0.04 0.08 0.11 0.19 0.20 0.22
0.33 0.16 0.09 0.05 0.01 0.00 0.00 0.00 0.00 0.01 0.03 0.00 0.00 0.00 0.00 0.02 0.03 0.03 0.04 0.05 0.06 0.06 0.03 0.04 0.01 0.00 0.00 0.00 0.01 0.01 0.01 0.01 0.01 0.01 0.01 0.01 0.02 0.02 0.04 0.06 0.09 0.13 0.15
0.11 0.08 0.04 0.01 0.01 0.00 0.00 0.00 0.00 0.00 0.01 0.00 0.00 0.00 0.00 0.00 0.02 0.05 0.03 0.01 0.02 0.03 0.01 0.00 0.00 0.00 0.00 0.00 0.00 0.00 0.00 0.01 0.01 0.01 0.01 0.00 0.00 0.01 0.02 0.03 0.07 0.09 0.09
0.01 0.00 0.00 0.00 0.00 0.00 0.00 0.00 0.00 0.00 0.00 0.00 0.00 0.00 0.00 0.01 0.01 0.01 0.02 0.02 0.01 0.01 0.01 0.00 0.00 0.00 0.00 0.00 0.00 0.00 0.00 0.00 0.00 0.01 0.01 0.00 0.00 0.00 0.00 0.00 0.02 0.05 0.09
0.01 0.00 0.00 0.00 0.00 0.00 0.00 0.00 0.00 0.00 0.00 0.00 0.00 0.00 0.00 0.01 0.01 0.01 0.02 0.01 0.01 0.01 0.01 0.00 0.00 0.00 0.00 0.00 0.00 0.00 0.00 0.00 0.00 0.01 0.00 0.00 0.00 0.01 0.01 0.01 0.01 0.01 0.02
0.01 0.01 0.01 0.02 0.03 0.02 0.01 0.01 0.00 0.00 0.00 0.00 0.00 0.01 0.01 0.00 0.00 0.00 0.01 0.01 0.01 0.01 0.00 0.00 0.00 0.00 0.00 0.00 0.00 0.00 0.00 0.00 0.00 0.00 0.01 0.01 0.01 0.01 0.01 0.02 0.02 0.03 0.04
0.00 0.01 0.02 0.02 0.01 0.00 0.00 0.00 0.00 0.00 0.00 0.00 0.00 0.01 0.03 0.01 0.01 0.00 0.00 0.00 0.00 0.00 0.00 0.00 0.00 0.00 0.00 0.00 0.00 0.00 0.00 0.00 0.00 0.00 0.02 0.02 0.03 0.02 0.03 0.04 0.05 0.06 0.08
0.00 0.00 0.00 0.00 0.00 0.00 0.00 0.00 0.00 0.00 0.00 0.00 0.00 0.00 0.01 0.02 0.03 0.01 0.00 0.00 0.00 0.00 0.00 0.00 0.00 0.00 0.00 0.00 0.00 0.00 0.01 0.00 0.01 0.01 0.02 0.03 0.04 0.05 0.05 0.07 0.09 0.10 0.09
0.00 0.00 0.00 0.00 0.00 0.00 0.00 0.00 0.00 0.00 0.00 0.00 0.00 0.00 0.00 0.00 0.01 0.01 0.01 0.00 0.00 0.00 0.00 0.00 0.00 0.00 0.00 0.00 0.00 0.00 0.01 0.01 0.01 0.01 0.02 0.03 0.04 0.05 0.06 0.07 0.08 0.12 0.13
0.00 0.00 0.00 0.00 0.00 0.00 0.00 0.00 0.00 0.00 0.00 0.00 0.00 0.00 0.00 0.00 0.00 0.01 0.03 0.00 0.00 0.00 0.00 0.00 0.00 0.00 0.00 0.00 0.00 0.00 0.01 0.02 0.01 0.01 0.01 0.03 0.03 0.04 0.05 0.05 0.06 0.09 0.13
0.00 0.00 0.00 0.00 0.00 0.00 0.00 0.00 0.00 0.00 0.00 0.00 0.00 0.00 0.00 0.00 0.00 0.00 0.01 0.01 0.00 0.00 0.00 0.00 0.00 0.00 0.00 0.00 0.00 0.00 0.01 0.01 0.01 0.01 0.00 0.01 0.03 0.03 0.04 0.04 0.05 0.06 0.11
0.00 0.00 0.00 0.00 0.00 0.00 0.00 0.00 0.00 0.00 0.00 0.00 0.00 0.00 0.00 0.00 0.00 0.00 0.00 0.01 0.00 0.01 0.00 0.00 0.00 0.00 0.00 0.00 0.00 0.00 0.00 0.00 0.01 0.01 0.00 0.00 0.01 0.03 0.04 0.03 0.04 0.04 0.07
0.00 0.00 0.00 0.00 0.00 0.00 0.00 0.00 0.00 0.00 0.00 0.00 0.00 0.00 0.00 0.00 0.00 0.00 0.00 0.00 0.00 0.02 0.03 0.00 0.00 0.00 0.00 0.00 0.00 0.00 0.00 0.01 0.01 0.01 0.01 0.00 0.00 0.02 0.03 0.03 0.04 0.03 0.04
0.00 0.00 0.00 0.00 0.00 0.00 0.00 0.00 0.00 0.00 0.00 0.00 0.00 0.00 0.00 0.00 0.00 0.00 0.00 0.00 0.00 0.00 0.01 0.00 0.00 0.00 0.00 0.00 0.00 0.00 0.00 0.00 0.01 0.02 0.01 0.01 0.00 0.00 0.01 0.02 0.02 0.02 0.04
0.00 0.00 0.00 0.00 0.00 0.00 0.00 0.00 0.00 0.00 0.00 0.00 0.00 0.00 0.00 0.00 0.00 0.01 0.01 0.00 0.00 0.00 0.00 0.00 0.00 0.00 0.00 0.00 0.00 0.00 0.00 0.00 0.01 0.02 0.03 0.02 0.00 0.00 0.01 0.02 0.02 0.02 0.02
0.00 0.00 0.00 0.00 0.00 0.00 0.00 0.00 0.00 0.00 0.00 0.01 0.01 0.01 0.01 0.03 0.04 0.03 0.02 0.01 0.01 0.00 0.01 0.00 0.00 0.00 0.00 0.00 0.00 0.00 0.00 0.01 0.01 0.02 0.02 0.04 0.03 0.01 0.01 0.02 0.02 0.02 0.02
0.00 0.00 0.00 0.00 0.00 0.00 0.00 0.00 0.01 0.01 0.01 0.02 0.03 0.02 0.01 0.01 0.02 0.02 0.02 0.02 0.01 0.01 0.01 0.01 0.01 0.00 0.00 0.00 0.00 0.01 0.03 0.02 0.00 0.00 0.01 0.03 0.07 0.01 0.01 0.01 0.02 0.03 0.02
0.00 0.00 0.01 0.02 0.03 0.04 0.03 0.03 0.04 0.03 0.04 0.06 0.04 0.02 0.00 0.02 0.05 0.05 0.03 0.02 0.02 0.02 0.02 0.02 0.01 0.00 0.01 0.02 0.02 0.02 0.04 0.03 0.01 0.00 0.00 0.01 0.04 0.01 0.00 0.00 0.02 0.03 0.03
0.04 0.06 0.07 0.08 0.10 0.14 0.15 0.11 0.09 0.08 0.08 0.07 0.05 0.04 0.03 0.04 0.06 0.04 0.02 0.02 0.01 0.02 0.02 0.02 0.02 0.02 0.03 0.03 0.07 0.06 0.07 0.08 0.05 0.02 0.01 0.01 0.01 0.05 0.02 0.00 0.02 0.02 0.03
0.13 0.19 0.25 0.26 0.28 0.30 0.24 0.15 0.12 0.10 0.09 0.07 0.06 0.04 0.04 0.05 0.05 0.05 0.05 0.03 0.01 0.01 0.01 0.01 0.02 0.02 0.03 0.03 0.05 0.06 0.05 0.03 0.00 0.00 0.02 0.02 0.01 0.01 0.01 0.01 0.01 0.01 0.02
0.28 0.33 0.34 0.39 0.40 0.33 0.24 0.18 0.18 0.18 0.16 0.15 0.12 0.09 0.07 0.05 0.05 0.04 0.02 0.02 0.03 0.01 0.00 0.01 0.03 0.06 0.03 0.03 0.02 0.03 0.03 0.05 0.04 0.00 0.01 0.02 0.01 0.01 0.01 0.00 0.00 0.00 0.01
0.42 0.38 0.40 0.46 0.35 0.24 0.16 0.13 0.16 0.19 0.17 0.14 0.09 0.08 0.05 0.04 0.03 0.01 0.01 0.02 0.05 0.04 0.02 0.01 0.03 0.06 0.04 0.07 0.05 0.09 0.06 0.12 0.05 0.02 0.02 0.02 0.03 0.02 0.02 0.01 0.00 0.00 0.00
0.33 0.30 0.41 0.39 0.23 0.17 0.16 0.16 0.18 0.20 0.17 0.11 0.06 0.04 0.01 0.01 0.01 0.01 0.01 0.02 0.05 0.03 0.03 0.03 0.04 0.05 0.06 0.04 0.02 0.05 0.03 0.06 0.01 0.04 0.03 0.02 0.03 0.02 0.03 0.02 0.00 0.00 0.00